Wetterdaten: Freitag, 13.12.2019
Datum Zeit Temp. Aussen Temp. o. S. Temp +5cm Feuchte Auss Luftdruck Regen Sonnenschein Regendauer Solar Windben Empfang
13.12.2019 00:00 3,8 C 2,8 C 2,2 C 85 % 985,4 hPa 0,0 l/m 0 min 0 min 0 W/m 35,4 km/h (5 Bft) 100,00 %
13.12.2019 00:02 3,7 C 2,8 C 2,2 C 85 % 985,4 hPa 0,0 l/m 0 min 0 min 0 W/m 25,7 km/h (4 Bft) 94,74 %
13.12.2019 00:04 3,7 C 2,8 C 2,2 C 85 % 985,4 hPa 0,0 l/m 0 min 0 min 0 W/m 25,7 km/h (4 Bft) 95,74 %
13.12.2019 00:08 3,7 C 2,8 C 2,2 C 85 % 985,2 hPa 0,0 l/m 0 min 0 min 0 W/m 35,4 km/h (5 Bft) 96,77 %
13.12.2019 00:10 3,7 C 2,8 C 2,2 C 85 % 985,1 hPa 0,0 l/m 0 min 0 min 0 W/m 38,6 km/h (5 Bft) 100,00 %
13.12.2019 00:12 3,7 C 3,3 C 2,2 C 85 % 985,0 hPa 0,0 l/m 0 min 0 min 0 W/m 38,6 km/h (5 Bft) 57,45 %
13.12.2019 00:14 3,7 C 2,8 C 2,2 C 85 % 985,0 hPa 0,0 l/m 0 min 0 min 0 W/m 35,4 km/h (5 Bft) 95,56 %
13.12.2019 00:16 3,7 C 2,8 C 2,2 C 85 % 985,0 hPa 0,0 l/m 0 min 0 min 0 W/m 38,6 km/h (5 Bft) 95,74 %
13.12.2019 00:18 3,7 C 2,8 C 2,2 C 85 % 985,0 hPa 0,0 l/m 0 min 0 min 0 W/m 38,6 km/h (5 Bft) 100,00 %
13.12.2019 00:20 3,6 C 2,8 C 2,2 C 85 % 984,9 hPa 0,0 l/m 0 min 0 min 0 W/m 35,4 km/h (5 Bft) 93,62 %
13.12.2019 00:22 3,6 C 2,8 C 2,2 C 85 % 984,8 hPa 0,0 l/m 0 min 0 min 0 W/m 35,4 km/h (5 Bft) 97,87 %
13.12.2019 00:24 3,6 C 2,8 C 2,2 C 85 % 984,8 hPa 0,0 l/m 0 min 0 min 0 W/m 32,2 km/h (5 Bft) 97,87 %
13.12.2019 00:26 3,7 C 2,8 C 2,2 C 85 % 984,7 hPa 0,0 l/m 0 min 0 min 0 W/m 29,0 km/h (5 Bft) 97,87 %
13.12.2019 00:28 3,6 C 3,3 C 2,2 C 85 % 984,7 hPa 0,0 l/m 0 min 0 min 0 W/m 32,2 km/h (5 Bft) 97,83 %
13.12.2019 00:30 3,6 C 3,3 C 2,2 C 85 % 984,7 hPa 0,0 l/m 0 min 0 min 0 W/m 38,6 km/h (5 Bft) 97,87 %
13.12.2019 00:32 3,7 C 3,3 C 2,8 C 85 % 984,6 hPa 0,0 l/m 0 min 0 min 0 W/m 41,8 km/h (6 Bft) 97,87 %
13.12.2019 00:34 3,7 C 3,3 C 2,8 C 85 % 984,5 hPa 0,0 l/m 0 min 0 min 0 W/m 38,6 km/h (5 Bft) 97,87 %
13.12.2019 00:36 3,7 C 3,3 C 2,8 C 85 % 984,4 hPa 0,0 l/m 0 min 0 min 0 W/m 35,4 km/h (5 Bft) 95,74 %
13.12.2019 00:38 3,7 C 3,3 C 2,8 C 85 % 984,4 hPa 0,0 l/m 0 min 2 min 0 W/m 35,4 km/h (5 Bft) 97,87 %
13.12.2019 00:40 3,7 C 3,3 C 2,2 C 85 % 984,3 hPa 0,0 l/m 0 min 2 min 0 W/m 35,4 km/h (5 Bft) 97,83 %
13.12.2019 00:42 3,7 C 2,8 C 2,2 C 85 % 984,2 hPa 0,0 l/m 0 min 2 min 0 W/m 25,7 km/h (4 Bft) 97,87 %
13.12.2019 00:44 3,7 C 2,8 C 2,2 C 85 % 984,3 hPa 0,0 l/m 0 min 2 min 0 W/m 29,0 km/h (5 Bft) 97,87 %
13.12.2019 00:46 3,7 C 2,8 C 2,2 C 85 % 984,2 hPa 0,0 l/m 0 min 2 min 0 W/m 29,0 km/h (5 Bft) 97,87 %
13.12.2019 00:48 3,7 C 2,8 C 1,7 C 85 % 984,1 hPa 0,0 l/m 0 min 2 min 0 W/m 41,8 km/h (6 Bft) 97,87 %
13.12.2019 00:50 3,7 C 2,2 C 1,7 C 85 % 984,1 hPa 0,0 l/m 0 min 2 min 0 W/m 22,5 km/h (4 Bft) 100,00 %
13.12.2019 00:52 3,7 C 2,2 C 1,7 C 86 % 983,9 hPa 0,0 l/m 0 min 2 min 0 W/m 45,1 km/h (6 Bft) 100,00 %
13.12.2019 00:54 3,7 C 1,7 C 1,1 C 86 % 983,8 hPa 0,2 l/m 0 min 2 min 0 W/m 35,4 km/h (5 Bft) 100,00 %
13.12.2019 00:56 3,6 C 1,7 C 1,1 C 86 % 983,6 hPa 0,0 l/m 0 min 2 min 0 W/m 29,0 km/h (5 Bft) 100,00 %
13.12.2019 00:58 3,6 C 1,7 C 1,1 C 86 % 983,6 hPa 0,0 l/m 0 min 2 min 0 W/m 41,8 km/h (6 Bft) 100,00 %
13.12.2019 01:00 3,6 C 1,7 C 1,1 C 86 % 983,6 hPa 0,0 l/m 0 min 2 min 0 W/m 38,6 km/h (5 Bft) 100,00 %
13.12.2019 01:02 3,6 C 1,7 C 1,1 C 86 % 983,5 hPa 0,0 l/m 0 min 2 min 0 W/m 45,1 km/h (6 Bft) 100,00 %
13.12.2019 01:04 3,5 C 1,7 C 1,1 C 87 % 983,5 hPa 0,0 l/m 0 min 2 min 0 W/m 41,8 km/h (6 Bft) 100,00 %
13.12.2019 01:06 3,5 C 1,7 C 1,1 C 87 % 983,3 hPa 0,0 l/m 0 min 2 min 0 W/m 35,4 km/h (5 Bft) 100,00 %
13.12.2019 01:08 3,5 C 1,7 C 1,1 C 87 % 983,3 hPa 0,0 l/m 0 min 2 min 0 W/m 41,8 km/h (6 Bft) 100,00 %
13.12.2019 01:10 3,4 C 1,7 C 1,1 C 87 % 983,2 hPa 0,0 l/m 0 min 2 min 0 W/m 22,5 km/h (4 Bft) 100,00 %
13.12.2019 01:12 3,4 C 1,7 C 1,1 C 87 % 983,2 hPa 0,2 l/m 0 min 2 min 0 W/m 38,6 km/h (5 Bft) 82,98 %
13.12.2019 01:14 3,4 C 1,7 C 1,1 C 87 % 983,0 hPa 0,0 l/m 0 min 2 min 0 W/m 22,5 km/h (4 Bft) 72,09 %
13.12.2019 01:16 3,4 C 1,7 C 1,1 C 87 % 983,1 hPa 0,0 l/m 0 min 2 min 0 W/m 29,0 km/h (5 Bft) 100,00 %
13.12.2019 01:18 3,4 C 1,7 C 1,1 C 87 % 983,0 hPa 0,0 l/m 0 min 2 min 0 W/m 22,5 km/h (4 Bft) 100,00 %
13.12.2019 01:20 3,4 C 1,7 C 1,1 C 87 % 982,9 hPa 0,0 l/m 0 min 2 min 0 W/m 35,4 km/h (5 Bft) 97,87 %
13.12.2019 01:22 3,4 C 1,7 C 1,1 C 87 % 982,8 hPa 0,0 l/m 0 min 2 min 0 W/m 35,4 km/h (5 Bft) 100,00 %
13.12.2019 01:24 3,4 C 1,7 C 1,1 C 87 % 982,8 hPa 0,0 l/m 0 min 2 min 0 W/m 29,0 km/h (5 Bft) 100,00 %
13.12.2019 01:26 3,4 C 1,7 C 1,1 C 87 % 982,8 hPa 0,0 l/m 0 min 2 min 0 W/m 38,6 km/h (5 Bft) 100,00 %
13.12.2019 01:28 3,4 C 1,7 C 1,1 C 87 % 982,7 hPa 0,0 l/m 0 min 2 min 0 W/m 35,4 km/h (5 Bft) 100,00 %
13.12.2019 01:30 3,4 C 1,7 C 1,1 C 87 % 982,6 hPa 0,0 l/m 0 min 2 min 0 W/m 38,6 km/h (5 Bft) 100,00 %
13.12.2019 01:32 3,4 C 1,7 C 1,1 C 87 % 982,5 hPa 0,0 l/m 0 min 2 min 0 W/m 48,3 km/h (6 Bft) 100,00 %
13.12.2019 01:34 3,4 C 1,7 C 1,1 C 87 % 982,4 hPa 0,0 l/m 0 min 2 min 0 W/m 22,5 km/h (4 Bft) 100,00 %
13.12.2019 01:36 3,4 C 1,7 C 1,1 C 87 % 982,3 hPa 0,0 l/m 0 min 2 min 0 W/m 29,0 km/h (5 Bft) 100,00 %
13.12.2019 01:38 3,4 C 1,7 C 1,1 C 87 % 982,3 hPa 0,0 l/m 0 min 2 min 0 W/m 35,4 km/h (5 Bft) 100,00 %
13.12.2019 01:40 3,4 C 1,7 C 1,1 C 87 % 982,2 hPa 0,0 l/m 0 min 2 min 0 W/m 45,1 km/h (6 Bft) 100,00 %
13.12.2019 01:42 3,4 C 1,7 C 1,1 C 87 % 982,1 hPa 0,2 l/m 0 min 2 min 0 W/m 45,1 km/h (6 Bft) 100,00 %
13.12.2019 01:44 3,4 C 1,7 C 1,1 C 87 % 982,1 hPa 0,0 l/m 0 min 2 min 0 W/m 45,1 km/h (6 Bft) 97,87 %
13.12.2019 01:46 3,4 C 1,7 C 1,1 C 87 % 982,0 hPa 0,0 l/m 0 min 2 min 0 W/m 29,0 km/h (5 Bft) 100,00 %
13.12.2019 01:48 3,4 C 1,7 C 1,1 C 87 % 982,1 hPa 0,0 l/m 0 min 2 min 0 W/m 35,4 km/h (5 Bft) 100,00 %
13.12.2019 01:50 3,5 C 2,2 C 1,1 C 87 % 982,0 hPa 0,0 l/m 0 min 2 min 0 W/m 35,4 km/h (5 Bft) 100,00 %
13.12.2019 01:52 3,4 C 2,2 C 1,1 C 87 % 981,8 hPa 0,0 l/m 0 min 2 min 0 W/m 35,4 km/h (5 Bft) 95,74 %
13.12.2019 01:54 3,5 C 2,2 C 1,7 C 87 % 981,7 hPa 0,0 l/m 0 min 2 min 0 W/m 38,6 km/h (5 Bft) 100,00 %
13.12.2019 01:56 3,5 C 2,2 C 1,7 C 87 % 981,6 hPa 0,0 l/m 0 min 2 min 0 W/m 22,5 km/h (4 Bft) 97,87 %
13.12.2019 01:58 3,5 C 2,2 C 1,7 C 87 % 981,6 hPa 0,0 l/m 0 min 2 min 0 W/m 32,2 km/h (5 Bft) 100,00 %
13.12.2019 02:00 3,5 C 2,2 C 1,7 C 87 % 981,5 hPa 0,0 l/m 0 min 0 min 0 W/m 22,5 km/h (4 Bft) 97,83 %
13.12.2019 02:02 3,5 C 2,2 C 1,7 C 87 % 981,5 hPa 0,0 l/m 0 min 0 min 0 W/m 57,9 km/h (7 Bft) 95,74 %
13.12.2019 02:04 3,5 C 2,2 C 1,7 C 86 % 981,4 hPa 0,0 l/m 0 min 2 min 0 W/m 41,8 km/h (6 Bft) 97,87 %
13.12.2019 02:06 3,5 C 2,2 C 1,7 C 86 % 981,3 hPa 0,0 l/m 0 min 2 min 0 W/m 25,7 km/h (4 Bft) 97,87 %
13.12.2019 02:08 3,6 C 2,2 C 1,7 C 86 % 981,3 hPa 0,0 l/m 0 min 2 min 0 W/m 35,4 km/h (5 Bft) 95,74 %
13.12.2019 02:10 3,6 C 2,2 C 1,7 C 86 % 981,3 hPa 0,0 l/m 0 min 0 min 0 W/m 35,4 km/h (5 Bft) 95,74 %
13.12.2019 02:12 3,6 C 2,2 C 1,7 C 86 % 981,2 hPa 0,0 l/m 0 min 2 min 0 W/m 25,7 km/h (4 Bft) 97,83 %
13.12.2019 02:14 3,6 C 2,2 C 1,7 C 86 % 981,2 hPa 0,0 l/m 0 min 0 min 0 W/m 48,3 km/h (6 Bft) 97,87 %
13.12.2019 02:16 3,6 C 2,2 C 1,7 C 86 % 981,1 hPa 0,0 l/m 0 min 0 min 0 W/m 41,8 km/h (6 Bft) 97,87 %
13.12.2019 02:18 3,6 C 2,2 C 1,7 C 85 % 981,0 hPa 0,0 l/m 0 min 0 min 0 W/m 35,4 km/h (5 Bft) 95,74 %
13.12.2019 02:20 3,6 C 2,2 C 1,7 C 85 % 981,0 hPa 0,0 l/m 0 min 0 min 0 W/m 29,0 km/h (5 Bft) 93,62 %
13.12.2019 02:22 3,6 C 2,2 C 1,7 C 85 % 981,0 hPa 0,0 l/m 0 min 2 min 0 W/m 32,2 km/h (5 Bft) 95,74 %
13.12.2019 02:24 3,6 C 1,7 C 1,7 C 85 % 981,0 hPa 0,0 l/m 0 min 2 min 0 W/m 41,8 km/h (6 Bft) 91,30 %
13.12.2019 02:26 3,6 C 1,7 C 1,7 C 85 % 980,9 hPa 0,0 l/m 0 min 2 min 0 W/m 38,6 km/h (5 Bft) 95,74 %
13.12.2019 02:28 3,6 C 1,7 C 1,1 C 86 % 980,8 hPa 0,0 l/m 0 min 2 min 0 W/m 29,0 km/h (5 Bft) 93,62 %
13.12.2019 02:30 3,6 C 1,7 C 1,1 C 86 % 980,8 hPa 0,0 l/m 0 min 2 min 0 W/m 38,6 km/h (5 Bft) 91,49 %
13.12.2019 02:32 3,5 C 1,7 C 1,1 C 86 % 980,7 hPa 0,0 l/m 0 min 2 min 0 W/m 35,4 km/h (5 Bft) 93,62 %
13.12.2019 02:34 3,4 C 1,7 C 1,1 C 86 % 980,6 hPa 0,0 l/m 0 min 2 min 0 W/m 48,3 km/h (6 Bft) 89,36 %
13.12.2019 02:36 3,4 C 1,7 C 1,1 C 87 % 980,5 hPa 0,0 l/m 0 min 2 min 0 W/m 25,7 km/h (4 Bft) 91,30 %
13.12.2019 02:38 3,4 C 1,7 C 1,1 C 87 % 980,5 hPa 0,0 l/m 0 min 0 min 0 W/m 25,7 km/h (4 Bft) 93,62 %
13.12.2019 02:40 3,4 C 1,7 C 1,1 C 87 % 980,4 hPa 0,0 l/m 0 min 0 min 0 W/m 32,2 km/h (5 Bft) 93,62 %
13.12.2019 02:42 3,3 C 1,7 C 1,1 C 87 % 980,5 hPa 0,0 l/m 0 min 0 min 0 W/m 38,6 km/h (5 Bft) 93,62 %
13.12.2019 02:44 3,3 C 1,7 C 1,1 C 87 % 980,3 hPa 0,0 l/m 0 min 2 min 0 W/m 29,0 km/h (5 Bft) 93,62 %
13.12.2019 02:46 3,3 C 1,7 C 1,1 C 87 % 980,3 hPa 0,0 l/m 0 min 2 min 0 W/m 29,0 km/h (5 Bft) 95,65 %
13.12.2019 02:48 3,3 C 1,7 C 1,1 C 87 % 980,3 hPa 0,0 l/m 0 min 2 min 0 W/m 29,0 km/h (5 Bft) 95,74 %
13.12.2019 02:50 3,3 C 1,7 C 1,1 C 87 % 980,2 hPa 0,0 l/m 0 min 2 min 0 W/m 41,8 km/h (6 Bft) 95,74 %
13.12.2019 02:52 3,3 C 1,7 C 1,1 C 88 % 980,2 hPa 0,0 l/m 0 min 2 min 0 W/m 38,6 km/h (5 Bft) 95,74 %
13.12.2019 02:54 3,3 C 1,7 C 1,1 C 88 % 980,1 hPa 0,0 l/m 0 min 2 min 0 W/m 38,6 km/h (5 Bft) 91,49 %
13.12.2019 02:56 3,3 C 1,7 C 1,1 C 88 % 980,1 hPa 0,0 l/m 0 min 2 min 0 W/m 29,0 km/h (5 Bft) 95,74 %
13.12.2019 02:58 3,3 C 1,7 C 1,1 C 88 % 980,1 hPa 0,0 l/m 0 min 0 min 0 W/m 41,8 km/h (6 Bft) 93,48 %
13.12.2019 03:00 3,3 C 1,7 C 1,7 C 88 % 980,1 hPa 0,0 l/m 0 min 2 min 0 W/m 45,1 km/h (6 Bft) 93,62 %
13.12.2019 03:02 3,3 C 1,7 C 1,7 C 88 % 980,0 hPa 0,0 l/m 0 min 0 min 0 W/m 29,0 km/h (5 Bft) 95,74 %
13.12.2019 03:04 3,3 C 1,7 C 1,7 C 88 % 980,0 hPa 0,0 l/m 0 min 2 min 0 W/m 19,3 km/h (3 Bft) 95,74 %
13.12.2019 03:06 3,3 C 1,7 C 1,7 C 88 % 979,9 hPa 0,0 l/m 0 min 2 min 0 W/m 38,6 km/h (5 Bft) 95,74 %
13.12.2019 03:08 3,3 C 1,7 C 1,7 C 88 % 979,9 hPa 0,0 l/m 0 min 2 min 0 W/m 38,6 km/h (5 Bft) 95,74 %
13.12.2019 03:10 3,3 C 1,7 C 1,7 C 88 % 980,0 hPa 0,0 l/m 0 min 2 min 0 W/m 38,6 km/h (5 Bft) 95,65 %
13.12.2019 03:12 3,3 C 1,7 C 1,7 C 88 % 980,0 hPa 0,0 l/m 0 min 2 min 0 W/m 32,2 km/h (5 Bft) 95,74 %
13.12.2019 03:14 3,3 C 1,7 C 1,7 C 88 % 979,9 hPa 0,0 l/m 0 min 2 min 0 W/m 32,2 km/h (5 Bft) 97,87 %
13.12.2019 03:16 3,3 C 1,7 C 1,7 C 88 % 979,8 hPa 0,0 l/m 0 min 2 min 0 W/m 25,7 km/h (4 Bft) 97,87 %
13.12.2019 03:18 3,3 C 1,7 C 1,7 C 88 % 979,8 hPa 0,0 l/m 0 min 2 min 0 W/m 41,8 km/h (6 Bft) 97,87 %
13.12.2019 03:20 3,3 C 1,7 C 1,1 C 88 % 979,7 hPa 0,0 l/m 0 min 2 min 0 W/m 29,0 km/h (5 Bft) 95,74 %
13.12.2019 03:22 3,2 C 1,7 C 1,1 C 89 % 979,7 hPa 0,0 l/m 0 min 2 min 0 W/m 29,0 km/h (5 Bft) 97,83 %
13.12.2019 03:24 3,2 C 1,7 C 1,1 C 89 % 979,7 hPa 0,0 l/m 0 min 2 min 0 W/m 54,7 km/h (7 Bft) 95,74 %
13.12.2019 03:26 3,2 C 1,1 C 1,1 C 89 % 979,6 hPa 0,0 l/m 0 min 2 min 0 W/m 45,1 km/h (6 Bft) 95,74 %
13.12.2019 03:28 3,1 C 1,1 C 1,1 C 89 % 979,5 hPa 0,0 l/m 0 min 2 min 0 W/m 25,7 km/h (4 Bft) 100,00 %
13.12.2019 03:30 3,1 C 1,1 C 1,1 C 89 % 979,4 hPa 0,0 l/m 0 min 2 min 0 W/m 38,6 km/h (5 Bft) 100,00 %
13.12.2019 03:32 3,1 C 1,1 C 1,1 C 89 % 979,5 hPa 0,0 l/m 0 min 2 min 0 W/m 35,4 km/h (5 Bft) 100,00 %
13.12.2019 03:34 3,1 C 1,7 C 1,1 C 89 % 979,2 hPa 0,0 l/m 0 min 2 min 0 W/m 38,6 km/h (5 Bft) 100,00 %
13.12.2019 03:36 3,1 C 1,7 C 1,1 C 89 % 979,1 hPa 0,0 l/m 0 min 2 min 0 W/m 54,7 km/h (7 Bft) 97,87 %
13.12.2019 03:38 3,1 C 1,7 C 1,1 C 90 % 979,1 hPa 0,0 l/m 0 min 2 min 0 W/m 41,8 km/h (6 Bft) 100,00 %
13.12.2019 03:40 3,0 C 1,1 C 1,1 C 90 % 979,0 hPa 0,0 l/m 0 min 2 min 0 W/m 48,3 km/h (6 Bft) 100,00 %
13.12.2019 03:42 3,0 C 1,1 C 1,1 C 90 % 978,9 hPa 0,0 l/m 0 min 2 min 0 W/m 29,0 km/h (5 Bft) 100,00 %
13.12.2019 03:44 3,0 C 1,1 C 1,1 C 90 % 978,9 hPa 0,0 l/m 0 min 2 min 0 W/m 22,5 km/h (4 Bft) 100,00 %
13.12.2019 03:46 2,9 C 1,1 C 1,1 C 90 % 978,9 hPa 0,0 l/m 0 min 2 min 0 W/m 22,5 km/h (4 Bft) 97,87 %
13.12.2019 03:48 2,9 C 1,1 C 1,1 C 90 % 978,8 hPa 0,0 l/m 0 min 2 min 0 W/m 25,7 km/h (4 Bft) 97,87 %
13.12.2019 03:50 2,9 C 1,7 C 1,1 C 90 % 978,7 hPa 0,0 l/m 0 min 2 min 0 W/m 32,2 km/h (5 Bft) 100,00 %
13.12.2019 03:52 2,9 C 1,7 C 1,1 C 90 % 978,7 hPa 0,0 l/m 0 min 2 min 0 W/m 38,6 km/h (5 Bft) 100,00 %
13.12.2019 03:54 2,9 C 1,7 C 1,1 C 90 % 978,7 hPa 0,0 l/m 0 min 2 min 0 W/m 29,0 km/h (5 Bft) 100,00 %
13.12.2019 03:56 2,8 C 1,7 C 1,1 C 90 % 978,6 hPa 0,0 l/m 0 min 2 min 0 W/m 45,1 km/h (6 Bft) 100,00 %
13.12.2019 03:58 2,9 C 1,7 C 1,1 C 90 % 978,6 hPa 0,0 l/m 0 min 2 min 0 W/m 38,6 km/h (5 Bft) 100,00 %
13.12.2019 04:00 2,9 C 1,7 C 1,1 C 90 % 978,6 hPa 0,0 l/m 0 min 2 min 0 W/m 35,4 km/h (5 Bft) 100,00 %
13.12.2019 04:05 2,9 C 1,7 C 1,7 C 91 % 978,6 hPa 0,0 l/m 0 min 5 min 0 W/m 38,6 km/h (5 Bft) 78,79 %
13.12.2019 04:06 2,9 C 1,7 C 1,7 C 91 % 978,6 hPa 0,0 l/m 0 min 1 min 0 W/m 19,3 km/h (3 Bft) 61,11 %
13.12.2019 04:08 2,9 C 1,7 C 1,7 C 91 % 978,6 hPa 0,0 l/m 0 min 2 min 0 W/m 41,8 km/h (6 Bft) 100,00 %
13.12.2019 04:10 2,9 C 1,7 C 1,1 C 91 % 978,5 hPa 0,0 l/m 0 min 2 min 0 W/m 38,6 km/h (5 Bft) 100,00 %
13.12.2019 04:12 3,0 C 1,7 C 1,1 C 91 % 978,5 hPa 0,0 l/m 0 min 2 min 0 W/m 35,4 km/h (5 Bft) 97,87 %
13.12.2019 04:14 3,0 C 1,7 C 1,1 C 91 % 978,5 hPa 0,2 l/m 0 min 2 min 0 W/m 29,0 km/h (5 Bft) 100,00 %
13.12.2019 04:16 3,0 C 1,1 C 1,1 C 91 % 978,4 hPa 0,0 l/m 0 min 2 min 0 W/m 38,6 km/h (5 Bft) 97,87 %
13.12.2019 04:18 3,0 C 1,1 C 1,1 C 91 % 978,3 hPa 0,0 l/m 0 min 2 min 0 W/m 45,1 km/h (6 Bft) 100,00 %
13.12.2019 04:20 2,9 C 1,1 C 1,1 C 90 % 978,3 hPa 0,0 l/m 0 min 2 min 0 W/m 35,4 km/h (5 Bft) 100,00 %
13.12.2019 04:22 2,9 C 1,1 C 0,6 C 91 % 978,2 hPa 0,2 l/m 0 min 2 min 0 W/m 38,6 km/h (5 Bft) 100,00 %
13.12.2019 04:24 2,9 C 1,1 C 1,1 C 91 % 978,2 hPa 0,0 l/m 0 min 2 min 0 W/m 25,7 km/h (4 Bft) 100,00 %
13.12.2019 04:26 2,9 C 1,1 C 1,1 C 91 % 978,1 hPa 0,0 l/m 0 min 2 min 0 W/m 35,4 km/h (5 Bft) 100,00 %
13.12.2019 04:28 2,8 C 1,1 C 0,6 C 91 % 978,0 hPa 0,0 l/m 0 min 2 min 0 W/m 22,5 km/h (4 Bft) 97,87 %
13.12.2019 04:30 2,8 C 1,1 C 0,6 C 91 % 977,9 hPa 0,0 l/m 0 min 2 min 0 W/m 38,6 km/h (5 Bft) 100,00 %
13.12.2019 04:32 2,8 C 1,1 C 0,6 C 91 % 977,9 hPa 0,0 l/m 0 min 2 min 0 W/m 32,2 km/h (5 Bft) 100,00 %
13.12.2019 04:34 2,8 C 1,1 C 0,6 C 91 % 977,8 hPa 0,0 l/m 0 min 2 min 0 W/m 35,4 km/h (5 Bft) 100,00 %
13.12.2019 04:36 2,8 C 1,1 C 0,6 C 91 % 977,8 hPa 0,0 l/m 0 min 2 min 0 W/m 48,3 km/h (6 Bft) 100,00 %
13.12.2019 04:38 2,7 C 1,1 C 0,6 C 92 % 977,7 hPa 0,0 l/m 0 min 2 min 0 W/m 29,0 km/h (5 Bft) 100,00 %
13.12.2019 04:40 2,7 C 1,1 C 0,6 C 92 % 977,6 hPa 0,0 l/m 0 min 2 min 0 W/m 29,0 km/h (5 Bft) 97,87 %
13.12.2019 04:42 2,7 C 1,1 C 0,6 C 92 % 977,5 hPa 0,0 l/m 0 min 2 min 0 W/m 48,3 km/h (6 Bft) 100,00 %
13.12.2019 04:44 2,7 C 1,1 C 1,1 C 92 % 977,5 hPa 0,0 l/m 0 min 2 min 0 W/m 19,3 km/h (3 Bft) 97,87 %
13.12.2019 04:46 2,7 C 1,1 C 0,6 C 92 % 977,5 hPa 0,0 l/m 0 min 2 min 0 W/m 29,0 km/h (5 Bft) 95,74 %
13.12.2019 04:48 2,7 C 1,1 C 0,6 C 92 % 977,4 hPa 0,0 l/m 0 min 2 min 0 W/m 35,4 km/h (5 Bft) 97,87 %
13.12.2019 04:50 2,6 C 1,1 C 1,1 C 92 % 977,3 hPa 0,0 l/m 0 min 0 min 0 W/m 32,2 km/h (5 Bft) 100,00 %
13.12.2019 04:52 2,7 C 1,1 C 1,1 C 92 % 977,3 hPa 0,0 l/m 0 min 0 min 0 W/m 25,7 km/h (4 Bft) 100,00 %
13.12.2019 04:54 2,6 C 1,1 C 1,1 C 92 % 977,2 hPa 0,0 l/m 0 min 2 min 0 W/m 45,1 km/h (6 Bft) 93,48 %
13.12.2019 04:56 2,6 C 1,1 C 1,1 C 93 % 977,2 hPa 0,0 l/m 0 min 2 min 0 W/m 48,3 km/h (6 Bft) 93,62 %
13.12.2019 04:58 2,6 C 1,1 C 1,1 C 93 % 977,1 hPa 0,0 l/m 0 min 0 min 0 W/m 29,0 km/h (5 Bft) 95,74 %
13.12.2019 05:00 2,6 C 1,1 C 1,1 C 93 % 977,1 hPa 0,0 l/m 0 min 0 min 0 W/m 25,7 km/h (4 Bft) 93,62 %
13.12.2019 05:02 2,6 C 1,1 C 1,1 C 93 % 976,9 hPa 0,0 l/m 0 min 0 min 0 W/m 29,0 km/h (5 Bft) 53,49 %
13.12.2019 05:04 2,6 C 1,1 C 1,1 C 93 % 976,9 hPa 0,0 l/m 0 min 0 min 0 W/m 35,4 km/h (5 Bft) 97,83 %
13.12.2019 05:06 2,6 C 1,1 C 1,1 C 93 % 976,9 hPa 0,0 l/m 0 min 0 min 0 W/m 32,2 km/h (5 Bft) 95,65 %
13.12.2019 05:08 2,6 C 1,1 C 1,1 C 93 % 976,8 hPa 0,0 l/m 0 min 0 min 0 W/m 35,4 km/h (5 Bft) 95,74 %
13.12.2019 05:10 2,6 C 1,7 C 1,1 C 93 % 976,8 hPa 0,0 l/m 0 min 0 min 0 W/m 54,7 km/h (7 Bft) 97,87 %
13.12.2019 05:12 2,6 C 1,7 C 1,1 C 93 % 976,8 hPa 0,2 l/m 0 min 2 min 0 W/m 45,1 km/h (6 Bft) 91,49 %
13.12.2019 05:14 2,6 C 1,7 C 1,1 C 93 % 976,8 hPa 0,0 l/m 0 min 0 min 0 W/m 29,0 km/h (5 Bft) 95,74 %
13.12.2019 05:16 2,6 C 1,7 C 1,1 C 93 % 976,7 hPa 0,0 l/m 0 min 0 min 0 W/m 35,4 km/h (5 Bft) 93,48 %
13.12.2019 05:18 2,6 C 1,7 C 1,1 C 93 % 976,7 hPa 0,0 l/m 0 min 0 min 0 W/m 35,4 km/h (5 Bft) 95,74 %
13.12.2019 05:20 2,6 C 1,7 C 1,1 C 93 % 976,7 hPa 0,0 l/m 0 min 0 min 0 W/m 38,6 km/h (5 Bft) 95,74 %
13.12.2019 05:22 2,6 C 1,7 C 1,1 C 93 % 976,7 hPa 0,0 l/m 0 min 0 min 0 W/m 35,4 km/h (5 Bft) 95,74 %
13.12.2019 05:24 2,6 C 1,7 C 1,1 C 93 % 976,6 hPa 0,0 l/m 0 min 0 min 0 W/m 22,5 km/h (4 Bft) 95,74 %
13.12.2019 05:26 2,6 C 1,7 C 1,1 C 93 % 976,5 hPa 0,0 l/m 0 min 0 min 0 W/m 35,4 km/h (5 Bft) 95,74 %
13.12.2019 05:28 2,7 C 1,7 C 1,1 C 93 % 976,6 hPa 0,0 l/m 0 min 0 min 0 W/m 38,6 km/h (5 Bft) 95,74 %
13.12.2019 05:30 2,7 C 1,7 C 1,1 C 93 % 976,4 hPa 0,0 l/m 0 min 0 min 0 W/m 25,7 km/h (4 Bft) 93,48 %
13.12.2019 05:32 2,7 C 1,7 C 1,1 C 93 % 976,4 hPa 0,0 l/m 0 min 0 min 0 W/m 29,0 km/h (5 Bft) 93,62 %
13.12.2019 05:34 2,7 C 1,7 C 1,1 C 93 % 976,3 hPa 0,0 l/m 0 min 0 min 0 W/m 29,0 km/h (5 Bft) 95,74 %
13.12.2019 05:36 2,7 C 1,7 C 1,1 C 93 % 976,2 hPa 0,0 l/m 0 min 0 min 0 W/m 38,6 km/h (5 Bft) 95,74 %
13.12.2019 05:38 2,7 C 1,7 C 1,1 C 93 % 976,2 hPa 0,0 l/m 0 min 0 min 0 W/m 22,5 km/h (4 Bft) 95,74 %
13.12.2019 05:40 2,7 C 1,7 C 1,1 C 93 % 976,1 hPa 0,0 l/m 0 min 0 min 0 W/m 22,5 km/h (4 Bft) 100,00 %
13.12.2019 05:42 2,7 C 1,7 C 1,1 C 93 % 976,0 hPa 0,0 l/m 0 min 0 min 0 W/m 25,7 km/h (4 Bft) 97,87 %
13.12.2019 05:44 2,7 C 1,7 C 1,1 C 93 % 976,0 hPa 0,0 l/m 0 min 2 min 0 W/m 29,0 km/h (5 Bft) 97,87 %
13.12.2019 05:46 2,8 C 1,7 C 1,1 C 93 % 976,1 hPa 0,0 l/m 0 min 2 min 0 W/m 25,7 km/h (4 Bft) 97,87 %
13.12.2019 05:48 2,8 C 1,7 C 1,1 C 93 % 975,9 hPa 0,0 l/m 0 min 0 min 0 W/m 22,5 km/h (4 Bft) 100,00 %
13.12.2019 05:50 2,8 C 1,7 C 1,1 C 93 % 975,9 hPa 0,0 l/m 0 min 0 min 0 W/m 29,0 km/h (5 Bft) 100,00 %
13.12.2019 05:52 2,8 C 1,7 C 1,1 C 93 % 975,8 hPa 0,0 l/m 0 min 2 min 0 W/m 32,2 km/h (5 Bft) 97,83 %
13.12.2019 05:54 2,8 C 1,1 C 1,1 C 93 % 975,8 hPa 0,0 l/m 0 min 2 min 0 W/m 29,0 km/h (5 Bft) 100,00 %
13.12.2019 05:56 2,8 C 1,1 C 1,1 C 93 % 975,8 hPa 0,0 l/m 0 min 2 min 0 W/m 16,1 km/h (3 Bft) 97,87 %
13.12.2019 05:58 2,8 C 1,1 C 1,1 C 93 % 975,7 hPa 0,0 l/m 0 min 2 min 0 W/m 25,7 km/h (4 Bft) 53,49 %
13.12.2019 06:00 2,8 C 1,1 C 1,1 C 93 % 975,5 hPa 0,0 l/m 0 min 2 min 0 W/m 29,0 km/h (5 Bft) 100,00 %
13.12.2019 06:02 2,8 C 1,7 C 1,1 C 93 % 975,6 hPa 0,0 l/m 0 min 2 min 0 W/m 25,7 km/h (4 Bft) 97,87 %
13.12.2019 06:04 2,8 C 1,7 C 1,1 C 93 % 975,5 hPa 0,0 l/m 0 min 2 min 0 W/m 25,7 km/h (4 Bft) 100,00 %
13.12.2019 06:06 2,8 C 1,7 C 1,1 C 93 % 975,4 hPa 0,0 l/m 0 min 0 min 0 W/m 29,0 km/h (5 Bft) 97,87 %
13.12.2019 06:08 2,8 C 1,7 C 1,1 C 93 % 975,4 hPa 0,0 l/m 0 min 2 min 0 W/m 25,7 km/h (4 Bft) 100,00 %
13.12.2019 06:10 2,8 C 1,7 C 1,1 C 93 % 975,3 hPa 0,0 l/m 0 min 2 min 0 W/m 41,8 km/h (6 Bft) 97,87 %
13.12.2019 06:12 2,8 C 1,7 C 1,1 C 93 % 975,4 hPa 0,0 l/m 0 min 2 min 0 W/m 22,5 km/h (4 Bft) 97,87 %
13.12.2019 06:14 2,8 C 1,7 C 1,1 C 93 % 975,3 hPa 0,0 l/m 0 min 2 min 0 W/m 22,5 km/h (4 Bft) 97,87 %
13.12.2019 06:16 2,8 C 1,7 C 1,1 C 93 % 975,3 hPa 0,0 l/m 0 min 2 min 0 W/m 35,4 km/h (5 Bft) 97,83 %
13.12.2019 06:18 2,8 C 1,7 C 1,1 C 93 % 975,2 hPa 0,0 l/m 0 min 0 min 0 W/m 22,5 km/h (4 Bft) 97,87 %
13.12.2019 06:20 2,8 C 1,7 C 1,1 C 93 % 975,3 hPa 0,0 l/m 0 min 2 min 0 W/m 32,2 km/h (5 Bft) 97,87 %
13.12.2019 06:22 2,8 C 1,7 C 1,1 C 93 % 975,2 hPa 0,0 l/m 0 min 2 min 0 W/m 35,4 km/h (5 Bft) 97,87 %
13.12.2019 06:24 2,8 C 1,7 C 1,1 C 93 % 975,2 hPa 0,0 l/m 0 min 2 min 0 W/m 29,0 km/h (5 Bft) 97,87 %
13.12.2019 06:26 2,8 C 1,7 C 1,1 C 93 % 975,2 hPa 0,0 l/m 0 min 2 min 0 W/m 32,2 km/h (5 Bft) 97,83 %
13.12.2019 06:28 2,9 C 1,7 C 1,1 C 93 % 975,1 hPa 0,0 l/m 0 min 2 min 0 W/m 25,7 km/h (4 Bft) 97,87 %
13.12.2019 06:30 2,9 C 1,7 C 1,1 C 93 % 975,0 hPa 0,0 l/m 0 min 2 min 0 W/m 32,2 km/h (5 Bft) 97,87 %
13.12.2019 06:32 2,9 C 1,7 C 1,1 C 93 % 975,1 hPa 0,0 l/m 0 min 2 min 0 W/m 29,0 km/h (5 Bft) 97,87 %
13.12.2019 06:34 2,9 C 2,2 C 1,1 C 92 % 975,0 hPa 0,0 l/m 0 min 0 min 0 W/m 29,0 km/h (5 Bft) 95,74 %
13.12.2019 06:36 2,9 C 2,2 C 1,1 C 92 % 975,1 hPa 0,0 l/m 0 min 0 min 0 W/m 19,3 km/h (3 Bft) 97,87 %
13.12.2019 06:38 2,9 C 2,2 C 1,1 C 92 % 975,0 hPa 0,0 l/m 0 min 0 min 0 W/m 25,7 km/h (4 Bft) 97,83 %
13.12.2019 06:40 3,0 C 2,2 C 1,1 C 92 % 974,9 hPa 0,0 l/m 0 min 0 min 0 W/m 29,0 km/h (5 Bft) 97,87 %
13.12.2019 06:42 3,0 C 2,2 C 1,1 C 92 % 974,9 hPa 0,0 l/m 0 min 0 min 0 W/m 35,4 km/h (5 Bft) 95,74 %
13.12.2019 06:44 3,0 C 2,2 C 1,1 C 92 % 974,8 hPa 0,0 l/m 0 min 2 min 0 W/m 35,4 km/h (5 Bft) 97,87 %
13.12.2019 06:46 3,0 C 2,2 C 1,1 C 92 % 974,7 hPa 0,0 l/m 0 min 2 min 0 W/m 38,6 km/h (5 Bft) 95,74 %
13.12.2019 06:48 3,1 C 2,2 C 1,1 C 92 % 974,8 hPa 0,0 l/m 0 min 0 min 0 W/m 29,0 km/h (5 Bft) 97,87 %
13.12.2019 06:50 3,1 C 2,2 C 1,1 C 92 % 974,8 hPa 0,0 l/m 0 min 2 min 0 W/m 32,2 km/h (5 Bft) 97,83 %
13.12.2019 06:52 3,1 C 2,2 C 1,1 C 92 % 974,7 hPa 0,0 l/m 0 min 2 min 0 W/m 32,2 km/h (5 Bft) 97,87 %
13.12.2019 06:54 3,1 C 1,7 C 1,1 C 92 % 974,8 hPa 0,0 l/m 0 min 2 min 0 W/m 25,7 km/h (4 Bft) 95,74 %
13.12.2019 06:56 3,1 C 1,7 C 1,1 C 92 % 974,8 hPa 0,0 l/m 0 min 2 min 0 W/m 29,0 km/h (5 Bft) 97,87 %
13.12.2019 06:58 3,1 C 1,7 C 1,1 C 92 % 974,8 hPa 0,0 l/m 0 min 2 min 0 W/m 25,7 km/h (4 Bft) 95,74 %
13.12.2019 07:00 3,1 C 1,7 C 1,1 C 92 % 974,7 hPa 0,0 l/m 0 min 2 min 0 W/m 25,7 km/h (4 Bft) 97,87 %
13.12.2019 07:02 3,2 C 1,7 C 1,1 C 92 % 974,8 hPa 0,0 l/m 0 min 2 min 0 W/m 29,0 km/h (5 Bft) 97,83 %
13.12.2019 07:04 3,2 C 1,7 C 1,1 C 92 % 974,8 hPa 0,2 l/m 0 min 2 min 0 W/m 32,2 km/h (5 Bft) 97,87 %
13.12.2019 07:06 3,2 C 1,7 C 1,1 C 92 % 974,8 hPa 0,0 l/m 0 min 2 min 0 W/m 32,2 km/h (5 Bft) 97,87 %
13.12.2019 07:08 3,2 C 1,7 C 1,1 C 92 % 974,8 hPa 0,0 l/m 0 min 2 min 0 W/m 19,3 km/h (3 Bft) 97,87 %
13.12.2019 07:10 3,2 C 1,7 C 1,1 C 92 % 974,7 hPa 0,0 l/m 0 min 2 min 0 W/m 22,5 km/h (4 Bft) 97,87 %
13.12.2019 07:12 3,2 C 1,7 C 1,1 C 92 % 974,7 hPa 0,0 l/m 0 min 2 min 0 W/m 25,7 km/h (4 Bft) 95,74 %
13.12.2019 07:14 3,2 C 1,7 C 1,1 C 92 % 974,6 hPa 0,0 l/m 0 min 2 min 0 W/m 25,7 km/h (4 Bft) 97,83 %
13.12.2019 07:16 3,2 C 1,7 C 1,1 C 92 % 974,6 hPa 0,0 l/m 0 min 2 min 0 W/m 22,5 km/h (4 Bft) 97,87 %
13.12.2019 07:18 3,2 C 1,7 C 1,1 C 92 % 974,6 hPa 0,0 l/m 0 min 2 min 0 W/m 22,5 km/h (4 Bft) 100,00 %
13.12.2019 07:20 3,1 C 1,7 C 1,1 C 93 % 974,5 hPa 0,2 l/m 0 min 2 min 0 W/m 35,4 km/h (5 Bft) 100,00 %
13.12.2019 07:22 3,1 C 1,7 C 1,1 C 93 % 974,5 hPa 0,0 l/m 0 min 2 min 0 W/m 38,6 km/h (5 Bft) 97,87 %
13.12.2019 07:24 3,1 C 1,7 C 1,1 C 93 % 974,5 hPa 0,0 l/m 0 min 2 min 0 W/m 32,2 km/h (5 Bft) 97,87 %
13.12.2019 07:26 3,1 C 1,7 C 1,1 C 93 % 974,4 hPa 0,0 l/m 0 min 2 min 0 W/m 35,4 km/h (5 Bft) 97,83 %
13.12.2019 07:28 3,1 C 1,7 C 1,1 C 93 % 974,4 hPa 0,2 l/m 0 min 2 min 0 W/m 22,5 km/h (4 Bft) 97,87 %
13.12.2019 07:30 3,1 C 1,7 C 1,1 C 93 % 974,4 hPa 0,0 l/m 0 min 2 min 0 W/m 22,5 km/h (4 Bft) 93,62 %
13.12.2019 07:32 3,1 C 1,7 C 1,1 C 93 % 974,4 hPa 0,0 l/m 0 min 2 min 0 W/m 32,2 km/h (5 Bft) 97,87 %
13.12.2019 07:34 3,1 C 1,7 C 1,1 C 93 % 974,4 hPa 0,0 l/m 0 min 2 min 0 W/m 29,0 km/h (5 Bft) 97,87 %
13.12.2019 07:36 3,1 C 1,7 C 1,1 C 93 % 974,4 hPa 0,0 l/m 0 min 2 min 0 W/m 25,7 km/h (4 Bft) 97,83 %
13.12.2019 07:38 3,1 C 1,7 C 1,1 C 93 % 974,4 hPa 0,2 l/m 0 min 2 min 0 W/m 25,7 km/h (4 Bft) 97,87 %
13.12.2019 07:40 3,1 C 1,7 C 1,1 C 93 % 974,3 hPa 0,0 l/m 0 min 2 min 0 W/m 25,7 km/h (4 Bft) 97,87 %
13.12.2019 07:42 3,1 C 1,7 C 1,1 C 94 % 974,3 hPa 0,0 l/m 0 min 2 min 0 W/m 29,0 km/h (5 Bft) 91,49 %
13.12.2019 07:44 3,1 C 1,7 C 1,1 C 94 % 974,2 hPa 0,2 l/m 0 min 2 min 0 W/m 19,3 km/h (3 Bft) 93,62 %
13.12.2019 07:46 3,1 C 1,7 C 1,1 C 94 % 974,3 hPa 0,0 l/m 0 min 2 min 0 W/m 22,5 km/h (4 Bft) 95,74 %
13.12.2019 07:48 3,1 C 1,7 C 1,1 C 94 % 974,3 hPa 0,0 l/m 0 min 2 min 0 W/m 19,3 km/h (3 Bft) 95,65 %
13.12.2019 07:50 3,1 C 1,7 C 1,1 C 94 % 974,3 hPa 0,0 l/m 0 min 2 min 0 W/m 25,7 km/h (4 Bft) 93,62 %
13.12.2019 07:52 3,1 C 1,7 C 1,1 C 94 % 974,2 hPa 0,0 l/m 0 min 2 min 0 W/m 16,1 km/h (3 Bft) 93,62 %
13.12.2019 07:54 3,1 C 1,7 C 1,1 C 94 % 974,2 hPa 0,0 l/m 0 min 2 min 0 W/m 25,7 km/h (4 Bft) 95,74 %
13.12.2019 07:56 3,1 C 1,7 C 1,1 C 94 % 974,2 hPa 0,2 l/m 0 min 2 min 0 W/m 29,0 km/h (5 Bft) 95,74 %
13.12.2019 07:58 3,1 C 1,7 C 1,1 C 94 % 974,1 hPa 0,0 l/m 0 min 2 min 0 W/m 19,3 km/h (3 Bft) 93,62 %
13.12.2019 08:00 3,1 C 1,7 C 1,1 C 94 % 974,1 hPa 0,2 l/m 0 min 2 min 0 W/m 38,6 km/h (5 Bft) 95,65 %
13.12.2019 08:02 3,0 C 1,7 C 1,1 C 94 % 974,1 hPa 0,0 l/m 0 min 2 min 0 W/m 32,2 km/h (5 Bft) 93,62 %
13.12.2019 08:04 3,0 C 1,7 C 1,1 C 94 % 974,0 hPa 0,0 l/m 0 min 2 min 0 W/m 25,7 km/h (4 Bft) 93,62 %
13.12.2019 08:06 3,0 C 1,7 C 1,1 C 94 % 974,1 hPa 0,0 l/m 0 min 2 min 0 W/m 25,7 km/h (4 Bft) 93,62 %
13.12.2019 08:08 3,0 C 1,7 C 1,1 C 95 % 974,1 hPa 0,0 l/m 0 min 2 min 0 W/m 22,5 km/h (4 Bft) 97,87 %
13.12.2019 08:10 3,0 C 1,7 C 1,1 C 95 % 974,1 hPa 0,0 l/m 0 min 2 min 0 W/m 22,5 km/h (4 Bft) 97,87 %
13.12.2019 08:12 2,9 C 1,7 C 1,1 C 95 % 974,1 hPa 0,0 l/m 0 min 2 min 0 W/m 25,7 km/h (4 Bft) 100,00 %
13.12.2019 08:14 2,9 C 1,7 C 1,1 C 95 % 974,1 hPa 0,0 l/m 0 min 2 min 0 W/m 29,0 km/h (5 Bft) 97,87 %
13.12.2019 08:16 2,9 C 1,7 C 1,1 C 95 % 974,0 hPa 0,2 l/m 0 min 2 min 0 W/m 29,0 km/h (5 Bft) 95,74 %
13.12.2019 08:18 2,9 C 1,7 C 1,1 C 95 % 974,1 hPa 0,0 l/m 0 min 2 min 0 W/m 32,2 km/h (5 Bft) 95,74 %
13.12.2019 08:20 2,9 C 1,7 C 1,1 C 95 % 974,1 hPa 0,0 l/m 0 min 2 min 0 W/m 45,1 km/h (6 Bft) 95,74 %
13.12.2019 08:22 2,9 C 1,7 C 1,1 C 95 % 974,0 hPa 0,0 l/m 0 min 2 min 0 W/m 25,7 km/h (4 Bft) 95,65 %
13.12.2019 08:24 2,9 C 1,7 C 1,1 C 95 % 974,0 hPa 0,0 l/m 0 min 2 min 0 W/m 25,7 km/h (4 Bft) 95,74 %
13.12.2019 08:26 2,9 C 1,7 C 1,1 C 95 % 974,0 hPa 0,0 l/m 0 min 2 min 0 W/m 16,1 km/h (3 Bft) 97,87 %
13.12.2019 08:28 2,9 C 1,7 C 1,1 C 95 % 974,0 hPa 0,2 l/m 0 min 2 min 0 W/m 48,3 km/h (6 Bft) 100,00 %
13.12.2019 08:30 2,9 C 1,7 C 1,1 C 95 % 974,1 hPa 0,0 l/m 0 min 2 min 0 W/m 22,5 km/h (4 Bft) 100,00 %
13.12.2019 08:32 2,9 C 1,7 C 1,1 C 95 % 974,1 hPa 0,0 l/m 0 min 2 min 0 W/m 41,8 km/h (6 Bft) 100,00 %
13.12.2019 08:34 2,8 C 1,7 C 1,1 C 95 % 974,0 hPa 0,0 l/m 0 min 2 min 0 W/m 25,7 km/h (4 Bft) 100,00 %
13.12.2019 08:36 2,8 C 1,7 C 1,1 C 95 % 974,0 hPa 0,0 l/m 0 min 2 min 0 W/m 48,3 km/h (6 Bft) 97,87 %
13.12.2019 08:38 2,8 C 1,7 C 1,1 C 95 % 974,0 hPa 0,0 l/m 0 min 2 min 0 W/m 25,7 km/h (4 Bft) 100,00 %
13.12.2019 08:40 2,8 C 1,7 C 1,1 C 95 % 973,9 hPa 0,0 l/m 0 min 2 min 0 W/m 29,0 km/h (5 Bft) 97,87 %
13.12.2019 08:42 2,8 C 1,7 C 1,1 C 95 % 974,0 hPa 0,2 l/m 0 min 2 min 0 W/m 41,8 km/h (6 Bft) 100,00 %
13.12.2019 08:44 2,8 C 1,7 C 1,1 C 95 % 973,9 hPa 0,0 l/m 0 min 2 min 0 W/m 48,3 km/h (6 Bft) 100,00 %
13.12.2019 08:46 2,8 C 1,7 C 1,1 C 95 % 973,9 hPa 0,0 l/m 0 min 2 min 0 W/m 41,8 km/h (6 Bft) 100,00 %
13.12.2019 08:48 2,8 C 1,7 C 1,1 C 95 % 974,0 hPa 0,0 l/m 0 min 2 min 0 W/m 29,0 km/h (5 Bft) 100,00 %
13.12.2019 08:50 2,8 C 1,7 C 1,1 C 96 % 974,0 hPa 0,0 l/m 0 min 2 min 0 W/m 29,0 km/h (5 Bft) 100,00 %
13.12.2019 08:52 2,8 C 1,7 C 1,1 C 96 % 974,0 hPa 0,0 l/m 0 min 2 min 0 W/m 22,5 km/h (4 Bft) 100,00 %
13.12.2019 08:54 2,8 C 1,7 C 1,1 C 96 % 973,9 hPa 0,0 l/m 0 min 2 min 2 W/m 35,4 km/h (5 Bft) 100,00 %
13.12.2019 08:56 2,8 C 1,7 C 1,1 C 96 % 974,0 hPa 0,0 l/m 0 min 2 min 5 W/m 35,4 km/h (5 Bft) 100,00 %
13.12.2019 08:58 2,8 C 1,7 C 1,1 C 96 % 973,9 hPa 0,0 l/m 0 min 2 min 5 W/m 45,1 km/h (6 Bft) 100,00 %
13.12.2019 09:00 2,8 C 1,7 C 1,1 C 96 % 973,9 hPa 0,0 l/m 0 min 2 min 6 W/m 35,4 km/h (5 Bft) 100,00 %
13.12.2019 09:02 2,8 C 1,7 C 1,1 C 96 % 973,9 hPa 0,0 l/m 0 min 2 min 7 W/m 25,7 km/h (4 Bft) 97,87 %
13.12.2019 09:04 2,9 C 1,7 C 1,1 C 96 % 973,9 hPa 0,0 l/m 0 min 2 min 8 W/m 29,0 km/h (5 Bft) 100,00 %
13.12.2019 09:06 2,8 C 1,7 C 1,1 C 96 % 974,0 hPa 0,2 l/m 0 min 2 min 9 W/m 35,4 km/h (5 Bft) 100,00 %
13.12.2019 09:08 2,9 C 1,7 C 1,1 C 96 % 973,9 hPa 0,0 l/m 0 min 2 min 9 W/m 29,0 km/h (5 Bft) 100,00 %
13.12.2019 09:10 2,8 C 1,7 C 1,1 C 96 % 974,0 hPa 0,0 l/m 0 min 2 min 9 W/m 25,7 km/h (4 Bft) 100,00 %
13.12.2019 09:12 2,9 C 1,7 C 1,7 C 96 % 974,0 hPa 0,0 l/m 0 min 2 min 9 W/m 25,7 km/h (4 Bft) 100,00 %
13.12.2019 09:14 2,9 C 1,7 C 1,7 C 96 % 974,1 hPa 0,0 l/m 0 min 2 min 9 W/m 29,0 km/h (5 Bft) 100,00 %
13.12.2019 09:16 2,9 C 1,7 C 1,7 C 96 % 974,1 hPa 0,0 l/m 0 min 2 min 11 W/m 19,3 km/h (3 Bft) 100,00 %
13.12.2019 09:18 2,9 C 1,7 C 1,7 C 96 % 974,1 hPa 0,0 l/m 0 min 2 min 11 W/m 35,4 km/h (5 Bft) 100,00 %
13.12.2019 09:20 2,9 C 1,7 C 1,7 C 96 % 974,2 hPa 0,0 l/m 0 min 2 min 12 W/m 29,0 km/h (5 Bft) 100,00 %
13.12.2019 09:22 2,9 C 2,2 C 1,7 C 96 % 974,1 hPa 0,0 l/m 0 min 2 min 13 W/m 25,7 km/h (4 Bft) 100,00 %
13.12.2019 09:24 2,9 C 2,2 C 1,7 C 96 % 974,1 hPa 0,0 l/m 0 min 2 min 14 W/m 38,6 km/h (5 Bft) 100,00 %
13.12.2019 09:26 2,9 C 2,2 C 1,7 C 96 % 974,2 hPa 0,0 l/m 0 min 2 min 17 W/m 22,5 km/h (4 Bft) 100,00 %
13.12.2019 09:28 2,9 C 2,2 C 1,7 C 96 % 974,1 hPa 0,0 l/m 0 min 2 min 19 W/m 16,1 km/h (3 Bft) 97,87 %
13.12.2019 09:30 2,9 C 2,2 C 1,7 C 96 % 974,2 hPa 0,0 l/m 0 min 2 min 19 W/m 29,0 km/h (5 Bft) 97,87 %
13.12.2019 09:32 2,9 C 2,2 C 1,7 C 96 % 974,2 hPa 0,0 l/m 0 min 2 min 19 W/m 25,7 km/h (4 Bft) 97,83 %
13.12.2019 09:34 2,9 C 2,2 C 1,7 C 96 % 974,2 hPa 0,0 l/m 0 min 2 min 19 W/m 35,4 km/h (5 Bft) 100,00 %
13.12.2019 09:36 3,0 C 2,2 C 1,7 C 96 % 974,2 hPa 0,0 l/m 0 min 2 min 18 W/m 32,2 km/h (5 Bft) 100,00 %
13.12.2019 09:38 3,0 C 2,2 C 1,7 C 97 % 974,3 hPa 0,0 l/m 0 min 2 min 18 W/m 19,3 km/h (3 Bft) 97,87 %
13.12.2019 09:40 3,0 C 2,2 C 1,7 C 97 % 974,3 hPa 0,0 l/m 0 min 2 min 16 W/m 29,0 km/h (5 Bft) 100,00 %
13.12.2019 09:42 3,0 C 2,2 C 1,7 C 97 % 974,3 hPa 0,0 l/m 0 min 2 min 18 W/m 35,4 km/h (5 Bft) 97,87 %
13.12.2019 09:44 3,0 C 2,2 C 1,7 C 97 % 974,3 hPa 0,0 l/m 0 min 2 min 18 W/m 29,0 km/h (5 Bft) 97,83 %
13.12.2019 09:46 3,0 C 2,2 C 1,7 C 97 % 974,2 hPa 0,0 l/m 0 min 2 min 19 W/m 19,3 km/h (3 Bft) 100,00 %
13.12.2019 09:48 3,0 C 2,2 C 1,7 C 97 % 974,3 hPa 0,0 l/m 0 min 2 min 18 W/m 38,6 km/h (5 Bft) 95,74 %
13.12.2019 09:50 3,1 C 2,2 C 1,7 C 97 % 974,3 hPa 0,0 l/m 0 min 2 min 19 W/m 29,0 km/h (5 Bft) 95,74 %
13.12.2019 09:52 3,1 C 2,2 C 1,7 C 97 % 974,2 hPa 0,0 l/m 0 min 2 min 21 W/m 16,1 km/h (3 Bft) 95,74 %
13.12.2019 09:54 3,1 C 2,2 C 1,7 C 97 % 974,2 hPa 0,2 l/m 0 min 2 min 22 W/m 22,5 km/h (4 Bft) 97,87 %
13.12.2019 09:56 3,1 C 2,2 C 1,7 C 97 % 974,2 hPa 0,0 l/m 0 min 2 min 23 W/m 25,7 km/h (4 Bft) 97,83 %
13.12.2019 09:58 3,1 C 2,2 C 1,7 C 97 % 974,2 hPa 0,0 l/m 0 min 2 min 25 W/m 35,4 km/h (5 Bft) 97,87 %
13.12.2019 10:00 3,1 C 2,2 C 1,7 C 97 % 974,2 hPa 0,0 l/m 0 min 2 min 26 W/m 29,0 km/h (5 Bft) 97,87 %
13.12.2019 10:02 3,1 C 2,2 C 1,7 C 97 % 974,3 hPa 0,0 l/m 0 min 2 min 29 W/m 32,2 km/h (5 Bft) 95,74 %
13.12.2019 10:04 3,2 C 2,2 C 1,7 C 97 % 974,2 hPa 0,0 l/m 0 min 2 min 31 W/m 35,4 km/h (5 Bft) 95,74 %
13.12.2019 10:06 3,2 C 2,2 C 1,7 C 97 % 974,4 hPa 0,0 l/m 0 min 2 min 33 W/m 22,5 km/h (4 Bft) 95,74 %
13.12.2019 10:08 3,2 C 2,2 C 1,7 C 97 % 974,3 hPa 0,0 l/m 0 min 2 min 33 W/m 22,5 km/h (4 Bft) 97,83 %
13.12.2019 10:10 3,2 C 2,2 C 1,7 C 97 % 974,2 hPa 0,0 l/m 0 min 2 min 35 W/m 29,0 km/h (5 Bft) 95,74 %
13.12.2019 10:12 3,2 C 2,2 C 1,7 C 97 % 974,3 hPa 0,0 l/m 0 min 0 min 33 W/m 22,5 km/h (4 Bft) 93,62 %
13.12.2019 10:14 3,2 C 2,2 C 1,7 C 97 % 974,3 hPa 0,0 l/m 0 min 2 min 33 W/m 25,7 km/h (4 Bft) 95,74 %
13.12.2019 10:16 3,2 C 2,2 C 1,7 C 97 % 974,2 hPa 0,0 l/m 0 min 2 min 31 W/m 19,3 km/h (3 Bft) 93,62 %
13.12.2019 10:18 3,3 C 2,2 C 1,7 C 97 % 974,3 hPa 0,0 l/m 0 min 2 min 29 W/m 22,5 km/h (4 Bft) 95,65 %
13.12.2019 10:20 3,3 C 2,2 C 1,7 C 97 % 974,2 hPa 0,0 l/m 0 min 0 min 26 W/m 41,8 km/h (6 Bft) 93,62 %
13.12.2019 10:22 3,3 C 2,2 C 1,7 C 97 % 974,3 hPa 0,0 l/m 0 min 0 min 25 W/m 22,5 km/h (4 Bft) 89,36 %
13.12.2019 10:24 3,3 C 2,2 C 1,7 C 97 % 974,3 hPa 0,0 l/m 0 min 0 min 25 W/m 29,0 km/h (5 Bft) 93,62 %
13.12.2019 10:26 3,3 C 2,2 C 1,7 C 97 % 974,3 hPa 0,0 l/m 0 min 0 min 24 W/m 22,5 km/h (4 Bft) 93,62 %
13.12.2019 10:28 3,3 C 2,2 C 1,7 C 97 % 974,4 hPa 0,0 l/m 0 min 0 min 25 W/m 25,7 km/h (4 Bft) 93,62 %
13.12.2019 10:30 3,3 C 2,2 C 1,7 C 97 % 974,4 hPa 0,0 l/m 0 min 0 min 24 W/m 29,0 km/h (5 Bft) 93,48 %
13.12.2019 10:32 3,3 C 2,2 C 1,7 C 97 % 974,3 hPa 0,0 l/m 0 min 2 min 25 W/m 32,2 km/h (5 Bft) 91,49 %
13.12.2019 10:34 3,3 C 2,2 C 1,7 C 97 % 974,3 hPa 0,0 l/m 0 min 2 min 25 W/m 38,6 km/h (5 Bft) 93,62 %
13.12.2019 10:36 3,3 C 2,2 C 2,2 C 97 % 974,4 hPa 0,0 l/m 0 min 2 min 26 W/m 25,7 km/h (4 Bft) 95,74 %
13.12.2019 10:38 3,3 C 2,2 C 2,2 C 97 % 974,4 hPa 0,2 l/m 0 min 2 min 27 W/m 16,1 km/h (3 Bft) 93,62 %
13.12.2019 10:40 3,3 C 2,2 C 2,2 C 97 % 974,4 hPa 0,0 l/m 0 min 2 min 29 W/m 19,3 km/h (3 Bft) 93,62 %
13.12.2019 10:42 3,3 C 2,2 C 2,2 C 97 % 974,5 hPa 0,0 l/m 0 min 2 min 29 W/m 22,5 km/h (4 Bft) 86,96 %
13.12.2019 10:44 3,3 C 2,2 C 2,2 C 97 % 974,5 hPa 0,0 l/m 0 min 2 min 30 W/m 25,7 km/h (4 Bft) 93,62 %
13.12.2019 10:46 3,3 C 2,2 C 2,2 C 97 % 974,5 hPa 0,0 l/m 0 min 2 min 32 W/m 16,1 km/h (3 Bft) 61,70 %
13.12.2019 10:48 3,4 C 2,2 C 2,2 C 97 % 974,5 hPa 0,0 l/m 0 min 2 min 34 W/m 25,7 km/h (4 Bft) 85,71 %
13.12.2019 10:50 3,3 C 2,2 C 2,2 C 97 % 974,6 hPa 0,0 l/m 0 min 2 min 36 W/m 25,7 km/h (4 Bft) 95,74 %
13.12.2019 10:52 3,4 C 2,2 C 2,2 C 97 % 974,7 hPa 0,0 l/m 0 min 2 min 38 W/m 19,3 km/h (3 Bft) 95,74 %
13.12.2019 10:54 3,4 C 2,2 C 2,2 C 97 % 974,7 hPa 0,0 l/m 0 min 2 min 36 W/m 29,0 km/h (5 Bft) 91,30 %
13.12.2019 10:56 3,4 C 2,2 C 2,2 C 97 % 974,7 hPa 0,0 l/m 0 min 2 min 36 W/m 29,0 km/h (5 Bft) 97,87 %
13.12.2019 10:58 3,4 C 2,2 C 2,2 C 97 % 974,6 hPa 0,0 l/m 0 min 2 min 36 W/m 35,4 km/h (5 Bft) 97,87 %
13.12.2019 11:00 3,4 C 2,2 C 2,2 C 97 % 974,6 hPa 0,0 l/m 0 min 2 min 37 W/m 25,7 km/h (4 Bft) 95,74 %
13.12.2019 11:02 3,4 C 2,2 C 2,2 C 97 % 974,7 hPa 0,2 l/m 0 min 2 min 34 W/m 38,6 km/h (5 Bft) 97,87 %
13.12.2019 11:04 3,4 C 2,8 C 2,2 C 97 % 974,7 hPa 0,0 l/m 0 min 2 min 33 W/m 22,5 km/h (4 Bft) 97,83 %
13.12.2019 11:06 3,4 C 2,8 C 2,2 C 97 % 974,7 hPa 0,0 l/m 0 min 2 min 33 W/m 22,5 km/h (4 Bft) 100,00 %
13.12.2019 11:08 3,4 C 2,8 C 2,2 C 97 % 974,7 hPa 0,0 l/m 0 min 2 min 32 W/m 25,7 km/h (4 Bft) 95,74 %
13.12.2019 11:10 3,4 C 2,8 C 2,2 C 97 % 974,8 hPa 0,0 l/m 0 min 2 min 32 W/m 29,0 km/h (5 Bft) 100,00 %
13.12.2019 11:12 3,4 C 2,8 C 2,2 C 97 % 974,8 hPa 0,0 l/m 0 min 2 min 33 W/m 22,5 km/h (4 Bft) 100,00 %
13.12.2019 11:14 3,4 C 2,8 C 2,2 C 97 % 974,8 hPa 0,0 l/m 0 min 2 min 33 W/m 25,7 km/h (4 Bft) 100,00 %
13.12.2019 11:16 3,4 C 2,8 C 2,2 C 97 % 974,8 hPa 0,0 l/m 0 min 2 min 27 W/m 29,0 km/h (5 Bft) 100,00 %
13.12.2019 11:18 3,4 C 2,8 C 2,2 C 97 % 974,8 hPa 0,0 l/m 0 min 0 min 23 W/m 19,3 km/h (3 Bft) 97,87 %
13.12.2019 11:20 3,4 C 2,8 C 2,2 C 97 % 974,8 hPa 0,0 l/m 0 min 0 min 21 W/m 19,3 km/h (3 Bft) 100,00 %
13.12.2019 11:22 3,4 C 2,8 C 2,2 C 97 % 974,8 hPa 0,0 l/m 0 min 0 min 19 W/m 25,7 km/h (4 Bft) 100,00 %
13.12.2019 11:24 3,4 C 2,8 C 2,2 C 97 % 974,9 hPa 0,0 l/m 0 min 0 min 19 W/m 22,5 km/h (4 Bft) 100,00 %
13.12.2019 11:26 3,4 C 2,8 C 2,2 C 97 % 974,9 hPa 0,0 l/m 0 min 0 min 21 W/m 16,1 km/h (3 Bft) 100,00 %
13.12.2019 11:28 3,4 C 2,8 C 2,2 C 97 % 974,9 hPa 0,0 l/m 0 min 0 min 22 W/m 25,7 km/h (4 Bft) 100,00 %
13.12.2019 11:30 3,4 C 2,8 C 2,2 C 97 % 975,0 hPa 0,0 l/m 0 min 2 min 22 W/m 25,7 km/h (4 Bft) 100,00 %
13.12.2019 11:32 3,4 C 2,8 C 2,2 C 97 % 975,0 hPa 0,0 l/m 0 min 2 min 22 W/m 19,3 km/h (3 Bft) 100,00 %
13.12.2019 11:34 3,4 C 2,8 C 2,2 C 97 % 975,0 hPa 0,0 l/m 0 min 2 min 23 W/m 12,9 km/h (3 Bft) 100,00 %
13.12.2019 11:36 3,4 C 2,8 C 2,2 C 97 % 975,0 hPa 0,0 l/m 0 min 2 min 24 W/m 22,5 km/h (4 Bft) 100,00 %
13.12.2019 11:38 3,4 C 2,8 C 2,2 C 97 % 974,9 hPa 0,2 l/m 0 min 2 min 25 W/m 16,1 km/h (3 Bft) 100,00 %
13.12.2019 11:40 3,4 C 2,8 C 2,2 C 97 % 974,9 hPa 0,0 l/m 0 min 2 min 21 W/m 19,3 km/h (3 Bft) 100,00 %
13.12.2019 11:42 3,4 C 2,8 C 2,2 C 98 % 974,8 hPa 0,0 l/m 0 min 2 min 19 W/m 22,5 km/h (4 Bft) 100,00 %
13.12.2019 11:44 3,4 C 2,8 C 2,2 C 97 % 974,9 hPa 0,0 l/m 0 min 0 min 22 W/m 16,1 km/h (3 Bft) 100,00 %
13.12.2019 11:46 3,4 C 2,8 C 2,2 C 97 % 974,9 hPa 0,0 l/m 0 min 0 min 26 W/m 12,9 km/h (3 Bft) 100,00 %
13.12.2019 11:48 3,4 C 2,8 C 2,2 C 97 % 975,0 hPa 0,0 l/m 0 min 2 min 31 W/m 16,1 km/h (3 Bft) 100,00 %
13.12.2019 11:50 3,4 C 2,8 C 2,2 C 97 % 974,9 hPa 0,0 l/m 0 min 2 min 32 W/m 19,3 km/h (3 Bft) 100,00 %
13.12.2019 11:52 3,4 C 2,8 C 2,2 C 97 % 975,0 hPa 0,0 l/m 0 min 2 min 30 W/m 19,3 km/h (3 Bft) 100,00 %
13.12.2019 11:54 3,4 C 2,8 C 2,2 C 97 % 975,0 hPa 0,0 l/m 0 min 2 min 29 W/m 12,9 km/h (3 Bft) 100,00 %
13.12.2019 11:56 3,4 C 2,8 C 2,2 C 98 % 975,0 hPa 0,0 l/m 0 min 2 min 28 W/m 12,9 km/h (3 Bft) 100,00 %
13.12.2019 11:58 3,4 C 2,8 C 2,2 C 98 % 975,0 hPa 0,0 l/m 0 min 2 min 28 W/m 19,3 km/h (3 Bft) 97,87 %
13.12.2019 12:00 3,5 C 2,8 C 2,2 C 98 % 975,0 hPa 0,0 l/m 0 min 2 min 29 W/m 19,3 km/h (3 Bft) 100,00 %
13.12.2019 12:02 3,5 C 2,8 C 2,2 C 98 % 975,0 hPa 0,0 l/m 0 min 2 min 27 W/m 12,9 km/h (3 Bft) 100,00 %
13.12.2019 12:04 3,5 C 2,8 C 2,2 C 98 % 975,0 hPa 0,0 l/m 0 min 2 min 23 W/m 12,9 km/h (3 Bft) 100,00 %
13.12.2019 12:08 3,5 C 2,8 C 2,2 C 98 % 975,1 hPa 0,0 l/m 0 min 4 min 23 W/m 12,9 km/h (3 Bft) 100,00 %
13.12.2019 12:10 3,6 C 2,8 C 2,2 C 98 % 975,1 hPa 0,2 l/m 0 min 0 min 24 W/m 12,9 km/h (3 Bft) 100,00 %
13.12.2019 12:12 3,6 C 2,8 C 2,2 C 98 % 975,1 hPa 0,0 l/m 0 min 0 min 25 W/m 16,1 km/h (3 Bft) 100,00 %
13.12.2019 12:14 3,6 C 2,8 C 2,2 C 98 % 975,1 hPa 0,0 l/m 0 min 2 min 25 W/m 16,1 km/h (3 Bft) 97,83 %
13.12.2019 12:16 3,6 C 2,8 C 2,2 C 98 % 975,2 hPa 0,0 l/m 0 min 0 min 25 W/m 12,9 km/h (3 Bft) 97,87 %
13.12.2019 12:18 3,6 C 2,8 C 2,8 C 98 % 975,2 hPa 0,0 l/m 0 min 0 min 25 W/m 6,4 km/h (2 Bft) 100,00 %
13.12.2019 12:20 3,6 C 2,8 C 2,8 C 98 % 975,2 hPa 0,0 l/m 0 min 2 min 25 W/m 16,1 km/h (3 Bft) 100,00 %
13.12.2019 12:22 3,7 C 3,3 C 2,8 C 98 % 975,3 hPa 0,0 l/m 0 min 2 min 24 W/m 12,9 km/h (3 Bft) 100,00 %
13.12.2019 12:24 3,7 C 3,3 C 2,8 C 98 % 975,2 hPa 0,0 l/m 0 min 2 min 23 W/m 12,9 km/h (3 Bft) 100,00 %
13.12.2019 12:26 3,7 C 3,3 C 2,8 C 98 % 975,2 hPa 0,0 l/m 0 min 2 min 23 W/m 12,9 km/h (3 Bft) 100,00 %
13.12.2019 12:28 3,7 C 3,3 C 2,8 C 98 % 975,2 hPa 0,0 l/m 0 min 2 min 26 W/m 6,4 km/h (2 Bft) 95,74 %
13.12.2019 12:30 3,8 C 3,3 C 2,8 C 98 % 975,3 hPa 0,0 l/m 0 min 0 min 27 W/m 6,4 km/h (2 Bft) 100,00 %
13.12.2019 12:32 3,8 C 3,3 C 2,8 C 98 % 975,3 hPa 0,0 l/m 0 min 2 min 29 W/m 12,9 km/h (3 Bft) 100,00 %
13.12.2019 12:34 3,8 C 3,3 C 2,8 C 98 % 975,3 hPa 0,0 l/m 0 min 0 min 30 W/m 12,9 km/h (3 Bft) 100,00 %
13.12.2019 12:36 3,8 C 3,3 C 2,8 C 98 % 975,3 hPa 0,0 l/m 0 min 2 min 31 W/m 12,9 km/h (3 Bft) 97,87 %
13.12.2019 12:38 3,8 C 3,3 C 2,8 C 98 % 975,4 hPa 0,0 l/m 0 min 2 min 33 W/m 6,4 km/h (2 Bft) 100,00 %
13.12.2019 12:40 3,9 C 3,3 C 2,8 C 98 % 975,4 hPa 0,0 l/m 0 min 2 min 36 W/m 12,9 km/h (3 Bft) 100,00 %
13.12.2019 12:42 3,9 C 3,3 C 2,8 C 98 % 975,3 hPa 0,0 l/m 0 min 2 min 39 W/m 6,4 km/h (2 Bft) 97,87 %
13.12.2019 12:44 3,9 C 3,3 C 2,8 C 98 % 975,4 hPa 0,0 l/m 0 min 2 min 41 W/m 12,9 km/h (3 Bft) 100,00 %
13.12.2019 12:46 3,9 C 3,3 C 2,8 C 98 % 975,4 hPa 0,0 l/m 0 min 2 min 45 W/m 16,1 km/h (3 Bft) 97,87 %
13.12.2019 12:48 4,0 C 3,3 C 2,8 C 98 % 975,4 hPa 0,0 l/m 0 min 2 min 45 W/m 6,4 km/h (2 Bft) 93,62 %
13.12.2019 12:50 4,0 C 3,3 C 3,3 C 98 % 975,4 hPa 0,0 l/m 0 min 0 min 43 W/m 3,2 km/h (1 Bft) 97,83 %
13.12.2019 12:52 4,1 C 3,9 C 3,3 C 98 % 975,5 hPa 0,0 l/m 0 min 0 min 42 W/m 6,4 km/h (2 Bft) 93,62 %
13.12.2019 12:54 4,1 C 3,9 C 3,3 C 98 % 975,6 hPa 0,2 l/m 0 min 2 min 42 W/m 6,4 km/h (2 Bft) 95,74 %
13.12.2019 12:56 4,1 C 3,9 C 3,3 C 98 % 975,5 hPa 0,0 l/m 0 min 2 min 43 W/m 3,2 km/h (1 Bft) 93,62 %
13.12.2019 12:58 4,1 C 3,9 C 3,3 C 99 % 975,6 hPa 0,0 l/m 0 min 0 min 42 W/m 12,9 km/h (3 Bft) 97,87 %
13.12.2019 13:00 4,2 C 3,9 C 3,3 C 99 % 975,6 hPa 0,0 l/m 0 min 0 min 42 W/m 12,9 km/h (3 Bft) 97,87 %
13.12.2019 13:02 4,2 C 3,9 C 3,3 C 99 % 975,6 hPa 0,0 l/m 0 min 0 min 44 W/m 6,4 km/h (2 Bft) 95,65 %
13.12.2019 13:04 4,3 C 3,9 C 3,3 C 99 % 975,7 hPa 0,0 l/m 0 min 0 min 46 W/m 16,1 km/h (3 Bft) 89,36 %
13.12.2019 13:06 4,3 C 3,9 C 3,3 C 99 % 975,7 hPa 0,0 l/m 0 min 2 min 49 W/m 6,4 km/h (2 Bft) 95,74 %
13.12.2019 13:08 4,3 C 3,9 C 3,3 C 99 % 975,7 hPa 0,0 l/m 0 min 2 min 53 W/m 12,9 km/h (3 Bft) 93,62 %
13.12.2019 13:10 4,4 C 3,9 C 3,3 C 99 % 975,7 hPa 0,0 l/m 0 min 2 min 53 W/m 6,4 km/h (2 Bft) 93,62 %
13.12.2019 13:12 4,4 C 3,9 C 3,3 C 99 % 975,8 hPa 0,0 l/m 0 min 2 min 54 W/m 12,9 km/h (3 Bft) 91,30 %
13.12.2019 13:14 4,5 C 4,4 C 3,9 C 99 % 975,8 hPa 0,0 l/m 0 min 2 min 54 W/m 6,4 km/h (2 Bft) 93,62 %
13.12.2019 13:16 4,6 C 4,4 C 3,9 C 99 % 975,9 hPa 0,0 l/m 0 min 2 min 51 W/m 6,4 km/h (2 Bft) 93,62 %
13.12.2019 13:18 4,6 C 4,4 C 3,9 C 99 % 975,9 hPa 0,0 l/m 0 min 2 min 51 W/m 3,2 km/h (1 Bft) 91,49 %
13.12.2019 13:20 4,6 C 4,4 C 3,9 C 99 % 975,9 hPa 0,0 l/m 0 min 2 min 44 W/m 3,2 km/h (1 Bft) 93,62 %
13.12.2019 13:22 4,7 C 4,4 C 3,9 C 99 % 975,9 hPa 0,0 l/m 0 min 2 min 33 W/m 6,4 km/h (2 Bft) 93,62 %
13.12.2019 13:24 4,7 C 3,9 C 3,9 C 99 % 975,9 hPa 0,0 l/m 0 min 2 min 37 W/m 12,9 km/h (3 Bft) 93,48 %
13.12.2019 13:26 4,7 C 3,9 C 3,9 C 99 % 975,9 hPa 0,2 l/m 0 min 2 min 40 W/m 12,9 km/h (3 Bft) 93,62 %
13.12.2019 13:28 4,7 C 3,9 C 3,9 C 99 % 976,0 hPa 0,0 l/m 0 min 2 min 34 W/m 6,4 km/h (2 Bft) 95,74 %
13.12.2019 13:30 4,8 C 4,4 C 3,9 C 99 % 976,0 hPa 0,0 l/m 0 min 2 min 31 W/m 3,2 km/h (1 Bft) 93,62 %
13.12.2019 13:32 4,8 C 4,4 C 3,9 C 99 % 976,0 hPa 0,0 l/m 0 min 2 min 32 W/m 12,9 km/h (3 Bft) 93,62 %
13.12.2019 13:34 4,8 C 4,4 C 3,9 C 99 % 976,0 hPa 0,0 l/m 0 min 2 min 36 W/m 12,9 km/h (3 Bft) 95,74 %
13.12.2019 13:36 4,8 C 4,4 C 3,9 C 99 % 976,0 hPa 0,0 l/m 0 min 2 min 40 W/m 3,2 km/h (1 Bft) 97,83 %
13.12.2019 13:38 4,8 C 4,4 C 3,9 C 99 % 976,1 hPa 0,2 l/m 0 min 2 min 45 W/m 6,4 km/h (2 Bft) 97,87 %
13.12.2019 13:40 4,8 C 4,4 C 3,9 C 99 % 976,1 hPa 0,0 l/m 0 min 2 min 46 W/m 6,4 km/h (2 Bft) 95,74 %
13.12.2019 13:42 4,8 C 4,4 C 3,9 C 99 % 976,1 hPa 0,0 l/m 0 min 2 min 48 W/m 3,2 km/h (1 Bft) 97,87 %
13.12.2019 13:44 4,8 C 4,4 C 3,9 C 99 % 976,1 hPa 0,0 l/m 0 min 2 min 48 W/m 3,2 km/h (1 Bft) 95,74 %
13.12.2019 13:46 4,9 C 4,4 C 3,9 C 99 % 976,2 hPa 0,0 l/m 0 min 2 min 48 W/m 3,2 km/h (1 Bft) 97,87 %
13.12.2019 13:48 4,9 C 4,4 C 3,9 C 99 % 976,2 hPa 0,0 l/m 0 min 2 min 43 W/m 3,2 km/h (1 Bft) 95,65 %
13.12.2019 13:50 4,9 C 4,4 C 3,9 C 99 % 976,3 hPa 0,0 l/m 0 min 2 min 42 W/m 3,2 km/h (1 Bft) 97,87 %
13.12.2019 13:52 4,9 C 4,4 C 3,9 C 99 % 976,3 hPa 0,0 l/m 0 min 2 min 42 W/m 0,0 km/h (0 Bft) 95,74 %
13.12.2019 13:54 4,9 C 4,4 C 3,9 C 99 % 976,3 hPa 0,0 l/m 0 min 2 min 39 W/m 0,0 km/h (0 Bft) 97,87 %
13.12.2019 13:56 5,0 C 4,4 C 3,9 C 99 % 976,4 hPa 0,0 l/m 0 min 2 min 41 W/m 0,0 km/h (0 Bft) 97,87 %
13.12.2019 13:58 5,0 C 4,4 C 3,9 C 99 % 976,4 hPa 0,0 l/m 0 min 2 min 39 W/m 0,0 km/h (0 Bft) 97,87 %
13.12.2019 14:00 5,0 C 4,4 C 3,9 C 99 % 976,4 hPa 0,0 l/m 0 min 2 min 34 W/m 0,0 km/h (0 Bft) 97,83 %
13.12.2019 14:02 5,1 C 5,0 C 4,4 C 99 % 976,5 hPa 0,0 l/m 0 min 2 min 32 W/m 0,0 km/h (0 Bft) 100,00 %
13.12.2019 14:04 5,1 C 5,0 C 4,4 C 99 % 976,5 hPa 0,2 l/m 0 min 2 min 26 W/m 0,0 km/h (0 Bft) 100,00 %
13.12.2019 14:06 5,1 C 5,0 C 4,4 C 99 % 976,5 hPa 0,0 l/m 0 min 2 min 29 W/m 3,2 km/h (1 Bft) 97,87 %
13.12.2019 14:08 5,2 C 5,0 C 4,4 C 99 % 976,6 hPa 0,0 l/m 0 min 2 min 30 W/m 0,0 km/h (0 Bft) 97,87 %
13.12.2019 14:10 5,2 C 5,0 C 4,4 C 99 % 976,6 hPa 0,0 l/m 0 min 2 min 28 W/m 3,2 km/h (1 Bft) 100,00 %
13.12.2019 14:12 5,3 C 5,0 C 4,4 C 99 % 976,6 hPa 0,0 l/m 0 min 2 min 30 W/m 3,2 km/h (1 Bft) 100,00 %
13.12.2019 14:14 5,4 C 5,0 C 4,4 C 99 % 976,7 hPa 0,0 l/m 0 min 2 min 33 W/m 6,4 km/h (2 Bft) 100,00 %
13.12.2019 14:16 5,4 C 5,0 C 4,4 C 99 % 976,7 hPa 0,0 l/m 0 min 2 min 35 W/m 3,2 km/h (1 Bft) 97,87 %
13.12.2019 14:18 5,5 C 5,0 C 4,4 C 99 % 976,7 hPa 0,0 l/m 0 min 2 min 33 W/m 3,2 km/h (1 Bft) 95,74 %
13.12.2019 14:20 5,6 C 5,0 C 4,4 C 99 % 976,8 hPa 0,0 l/m 0 min 2 min 31 W/m 6,4 km/h (2 Bft) 100,00 %
13.12.2019 14:22 5,6 C 5,0 C 4,4 C 99 % 976,8 hPa 0,0 l/m 0 min 2 min 30 W/m 3,2 km/h (1 Bft) 100,00 %
13.12.2019 14:24 5,6 C 5,0 C 4,4 C 99 % 976,9 hPa 0,0 l/m 0 min 2 min 27 W/m 3,2 km/h (1 Bft) 100,00 %
13.12.2019 14:26 5,6 C 5,0 C 4,4 C 99 % 976,9 hPa 0,0 l/m 0 min 2 min 26 W/m 0,0 km/h (0 Bft) 100,00 %
13.12.2019 14:28 5,7 C 5,0 C 4,4 C 99 % 976,9 hPa 0,0 l/m 0 min 2 min 25 W/m 3,2 km/h (1 Bft) 100,00 %
13.12.2019 14:30 5,7 C 5,0 C 4,4 C 99 % 977,0 hPa 0,0 l/m 0 min 2 min 21 W/m 3,2 km/h (1 Bft) 100,00 %
13.12.2019 14:32 5,7 C 5,0 C 4,4 C 99 % 977,0 hPa 0,0 l/m 0 min 2 min 20 W/m 12,9 km/h (3 Bft) 100,00 %
13.12.2019 14:34 5,7 C 5,0 C 4,4 C 99 % 977,0 hPa 0,0 l/m 0 min 2 min 19 W/m 12,9 km/h (3 Bft) 100,00 %
13.12.2019 14:36 5,7 C 5,0 C 4,4 C 99 % 977,1 hPa 0,0 l/m 0 min 2 min 21 W/m 3,2 km/h (1 Bft) 100,00 %
13.12.2019 14:38 5,7 C 5,0 C 4,4 C 99 % 977,1 hPa 0,0 l/m 0 min 2 min 21 W/m 3,2 km/h (1 Bft) 100,00 %
13.12.2019 14:40 5,7 C 5,0 C 4,4 C 99 % 977,1 hPa 0,0 l/m 0 min 2 min 22 W/m 0,0 km/h (0 Bft) 100,00 %
13.12.2019 14:42 5,7 C 5,0 C 4,4 C 99 % 977,2 hPa 0,2 l/m 0 min 2 min 23 W/m 3,2 km/h (1 Bft) 100,00 %
13.12.2019 14:44 5,8 C 5,0 C 4,4 C 99 % 977,2 hPa 0,0 l/m 0 min 2 min 25 W/m 3,2 km/h (1 Bft) 100,00 %
13.12.2019 14:46 5,8 C 5,0 C 4,4 C 99 % 977,3 hPa 0,0 l/m 0 min 2 min 25 W/m 6,4 km/h (2 Bft) 100,00 %
13.12.2019 14:48 5,8 C 5,0 C 4,4 C 99 % 977,4 hPa 0,0 l/m 0 min 2 min 27 W/m 6,4 km/h (2 Bft) 97,87 %
13.12.2019 14:50 5,8 C 5,0 C 4,4 C 99 % 977,4 hPa 0,0 l/m 0 min 2 min 27 W/m 6,4 km/h (2 Bft) 100,00 %
13.12.2019 14:52 5,8 C 5,0 C 4,4 C 99 % 977,5 hPa 0,0 l/m 0 min 2 min 26 W/m 6,4 km/h (2 Bft) 100,00 %
13.12.2019 14:54 5,8 C 5,0 C 4,4 C 99 % 977,5 hPa 0,0 l/m 0 min 2 min 23 W/m 0,0 km/h (0 Bft) 100,00 %
13.12.2019 14:56 5,8 C 5,0 C 4,4 C 99 % 977,5 hPa 0,0 l/m 0 min 2 min 20 W/m 6,4 km/h (2 Bft) 97,83 %
13.12.2019 14:58 5,8 C 5,0 C 4,4 C 99 % 977,6 hPa 0,0 l/m 0 min 2 min 19 W/m 3,2 km/h (1 Bft) 100,00 %
13.12.2019 15:00 5,8 C 5,0 C 4,4 C 99 % 977,6 hPa 0,0 l/m 0 min 2 min 16 W/m 6,4 km/h (2 Bft) 100,00 %
13.12.2019 15:02 5,8 C 5,0 C 4,4 C 99 % 977,8 hPa 0,0 l/m 0 min 2 min 15 W/m 3,2 km/h (1 Bft) 100,00 %
13.12.2019 15:04 5,8 C 5,0 C 4,4 C 99 % 977,8 hPa 0,0 l/m 0 min 2 min 12 W/m 6,4 km/h (2 Bft) 100,00 %
13.12.2019 15:06 5,8 C 5,0 C 4,4 C 99 % 977,8 hPa 0,0 l/m 0 min 2 min 11 W/m 3,2 km/h (1 Bft) 100,00 %
13.12.2019 15:08 5,8 C 5,0 C 4,4 C 99 % 977,9 hPa 0,0 l/m 0 min 2 min 9 W/m 3,2 km/h (1 Bft) 100,00 %
13.12.2019 15:10 5,8 C 5,0 C 4,4 C 99 % 977,9 hPa 0,0 l/m 0 min 2 min 8 W/m 6,4 km/h (2 Bft) 97,87 %
13.12.2019 15:12 5,8 C 5,0 C 4,4 C 99 % 978,0 hPa 0,0 l/m 0 min 2 min 7 W/m 3,2 km/h (1 Bft) 95,74 %
13.12.2019 15:14 5,8 C 5,0 C 4,4 C 99 % 978,1 hPa 0,0 l/m 0 min 2 min 7 W/m 6,4 km/h (2 Bft) 100,00 %
13.12.2019 15:16 5,8 C 5,0 C 4,4 C 99 % 978,1 hPa 0,0 l/m 0 min 2 min 7 W/m 6,4 km/h (2 Bft) 100,00 %
13.12.2019 15:18 5,8 C 5,0 C 4,4 C 99 % 978,1 hPa 0,0 l/m 0 min 2 min 6 W/m 3,2 km/h (1 Bft) 100,00 %
13.12.2019 15:20 5,8 C 5,0 C 4,4 C 99 % 978,1 hPa 0,0 l/m 0 min 2 min 3 W/m 6,4 km/h (2 Bft) 95,65 %
13.12.2019 15:22 5,8 C 5,0 C 4,4 C 99 % 978,3 hPa 0,0 l/m 0 min 2 min 0 W/m 3,2 km/h (1 Bft) 97,87 %
13.12.2019 15:24 5,8 C 5,0 C 4,4 C 99 % 978,3 hPa 0,0 l/m 0 min 0 min 0 W/m 9,7 km/h (2 Bft) 95,74 %
13.12.2019 15:26 5,8 C 5,0 C 4,4 C 99 % 978,3 hPa 0,0 l/m 0 min 2 min 0 W/m 0,0 km/h (0 Bft) 97,87 %
13.12.2019 15:28 5,8 C 5,0 C 4,4 C 99 % 978,4 hPa 0,0 l/m 0 min 2 min 0 W/m 9,7 km/h (2 Bft) 97,87 %
13.12.2019 15:30 5,8 C 5,0 C 4,4 C 99 % 978,4 hPa 0,0 l/m 0 min 2 min 0 W/m 3,2 km/h (1 Bft) 95,74 %
13.12.2019 15:32 5,8 C 5,0 C 4,4 C 99 % 978,6 hPa 0,0 l/m 0 min 2 min 0 W/m 6,4 km/h (2 Bft) 95,65 %
13.12.2019 15:34 5,8 C 5,0 C 4,4 C 99 % 978,7 hPa 0,0 l/m 0 min 2 min 0 W/m 16,1 km/h (3 Bft) 95,74 %
13.12.2019 15:36 5,8 C 5,0 C 4,4 C 99 % 978,8 hPa 0,0 l/m 0 min 2 min 0 W/m 16,1 km/h (3 Bft) 97,87 %
13.12.2019 15:38 5,8 C 5,0 C 4,4 C 99 % 978,8 hPa 0,2 l/m 0 min 2 min 0 W/m 16,1 km/h (3 Bft) 95,74 %
13.12.2019 15:40 5,8 C 4,4 C 4,4 C 99 % 978,8 hPa 0,0 l/m 0 min 2 min 0 W/m 16,1 km/h (3 Bft) 95,74 %
13.12.2019 15:42 5,7 C 4,4 C 3,9 C 99 % 978,9 hPa 0,0 l/m 0 min 2 min 1 W/m 22,5 km/h (4 Bft) 95,74 %
13.12.2019 15:44 5,6 C 4,4 C 3,9 C 99 % 979,1 hPa 0,0 l/m 0 min 2 min 5 W/m 19,3 km/h (3 Bft) 95,65 %
13.12.2019 15:46 5,6 C 4,4 C 3,9 C 99 % 979,1 hPa 0,0 l/m 0 min 2 min 2 W/m 16,1 km/h (3 Bft) 95,74 %
13.12.2019 15:48 5,5 C 4,4 C 3,9 C 99 % 979,2 hPa 0,0 l/m 0 min 2 min 0 W/m 25,7 km/h (4 Bft) 95,74 %
13.12.2019 15:50 5,4 C 4,4 C 3,9 C 99 % 979,3 hPa 0,0 l/m 0 min 2 min 0 W/m 19,3 km/h (3 Bft) 93,62 %
13.12.2019 15:52 5,4 C 4,4 C 3,9 C 99 % 979,4 hPa 0,0 l/m 0 min 2 min 0 W/m 19,3 km/h (3 Bft) 93,62 %
13.12.2019 15:54 5,3 C 3,9 C 3,9 C 99 % 979,5 hPa 0,0 l/m 0 min 2 min 0 W/m 19,3 km/h (3 Bft) 93,62 %
13.12.2019 15:56 5,2 C 3,9 C 3,9 C 99 % 979,6 hPa 0,0 l/m 0 min 2 min 0 W/m 35,4 km/h (5 Bft) 95,65 %
13.12.2019 15:58 5,2 C 3,9 C 3,9 C 99 % 979,7 hPa 0,0 l/m 0 min 2 min 0 W/m 22,5 km/h (4 Bft) 95,74 %
13.12.2019 16:00 5,1 C 3,9 C 3,3 C 99 % 979,8 hPa 0,0 l/m 0 min 2 min 2 W/m 19,3 km/h (3 Bft) 93,62 %
13.12.2019 16:02 5,1 C 3,9 C 3,3 C 99 % 979,8 hPa 0,0 l/m 0 min 2 min 0 W/m 16,1 km/h (3 Bft) 95,74 %
13.12.2019 16:04 5,0 C 3,9 C 3,3 C 99 % 979,9 hPa 0,2 l/m 0 min 2 min 0 W/m 35,4 km/h (5 Bft) 95,74 %
13.12.2019 16:06 4,9 C 3,9 C 3,3 C 99 % 980,0 hPa 0,0 l/m 0 min 2 min 0 W/m 25,7 km/h (4 Bft) 97,83 %
13.12.2019 16:08 4,8 C 3,9 C 3,3 C 99 % 980,1 hPa 0,0 l/m 0 min 2 min 0 W/m 19,3 km/h (3 Bft) 97,87 %
13.12.2019 16:10 4,8 C 3,9 C 3,3 C 99 % 980,1 hPa 0,0 l/m 0 min 2 min 0 W/m 16,1 km/h (3 Bft) 97,87 %
13.12.2019 16:12 4,7 C 3,9 C 3,3 C 99 % 980,2 hPa 0,0 l/m 0 min 2 min 0 W/m 19,3 km/h (3 Bft) 95,74 %
13.12.2019 16:14 4,7 C 3,3 C 3,3 C 99 % 980,3 hPa 0,0 l/m 0 min 2 min 0 W/m 32,2 km/h (5 Bft) 97,87 %
13.12.2019 16:16 4,7 C 3,3 C 3,3 C 99 % 980,3 hPa 0,0 l/m 0 min 2 min 0 W/m 25,7 km/h (4 Bft) 97,87 %
13.12.2019 16:18 4,6 C 3,3 C 3,3 C 99 % 980,4 hPa 0,0 l/m 0 min 2 min 0 W/m 29,0 km/h (5 Bft) 95,65 %
13.12.2019 16:20 4,6 C 3,3 C 3,3 C 99 % 980,4 hPa 0,0 l/m 0 min 2 min 0 W/m 22,5 km/h (4 Bft) 93,62 %
13.12.2019 16:22 4,6 C 3,3 C 3,3 C 99 % 980,5 hPa 0,2 l/m 0 min 2 min 0 W/m 16,1 km/h (3 Bft) 95,74 %
13.12.2019 16:24 4,6 C 3,3 C 3,3 C 99 % 980,6 hPa 0,0 l/m 0 min 2 min 0 W/m 19,3 km/h (3 Bft) 95,74 %
13.12.2019 16:26 4,6 C 3,3 C 3,3 C 99 % 980,6 hPa 0,0 l/m 0 min 2 min 0 W/m 22,5 km/h (4 Bft) 93,62 %
13.12.2019 16:28 4,5 C 3,3 C 3,3 C 99 % 980,7 hPa 0,0 l/m 0 min 2 min 0 W/m 16,1 km/h (3 Bft) 95,74 %
13.12.2019 16:30 4,5 C 3,3 C 3,3 C 99 % 980,7 hPa 0,0 l/m 0 min 2 min 0 W/m 12,9 km/h (3 Bft) 95,65 %
13.12.2019 16:32 4,5 C 3,3 C 3,3 C 99 % 980,8 hPa 0,0 l/m 0 min 2 min 0 W/m 19,3 km/h (3 Bft) 93,62 %
13.12.2019 16:34 4,5 C 3,3 C 3,3 C 99 % 980,9 hPa 0,0 l/m 0 min 2 min 0 W/m 16,1 km/h (3 Bft) 97,87 %
13.12.2019 16:36 4,5 C 3,3 C 3,3 C 99 % 980,9 hPa 0,0 l/m 0 min 2 min 0 W/m 22,5 km/h (4 Bft) 97,87 %
13.12.2019 16:38 4,5 C 3,3 C 3,3 C 99 % 981,0 hPa 0,0 l/m 0 min 2 min 0 W/m 16,1 km/h (3 Bft) 97,87 %
13.12.2019 16:40 4,5 C 3,3 C 3,3 C 99 % 981,1 hPa 0,0 l/m 0 min 2 min 0 W/m 16,1 km/h (3 Bft) 97,87 %
13.12.2019 16:42 4,4 C 3,3 C 3,3 C 99 % 981,2 hPa 0,2 l/m 0 min 2 min 0 W/m 12,9 km/h (3 Bft) 95,65 %
13.12.2019 16:44 4,4 C 3,3 C 3,3 C 99 % 981,3 hPa 0,0 l/m 0 min 2 min 0 W/m 19,3 km/h (3 Bft) 97,87 %
13.12.2019 16:46 4,4 C 3,3 C 3,3 C 99 % 981,3 hPa 0,0 l/m 0 min 2 min 0 W/m 16,1 km/h (3 Bft) 97,87 %
13.12.2019 16:48 4,4 C 3,3 C 3,3 C 99 % 981,4 hPa 0,0 l/m 0 min 2 min 0 W/m 16,1 km/h (3 Bft) 97,87 %
13.12.2019 16:50 4,4 C 3,3 C 3,3 C 99 % 981,5 hPa 0,0 l/m 0 min 2 min 0 W/m 16,1 km/h (3 Bft) 95,74 %
13.12.2019 16:52 4,4 C 3,3 C 3,3 C 99 % 981,6 hPa 0,0 l/m 0 min 2 min 0 W/m 22,5 km/h (4 Bft) 97,87 %
13.12.2019 16:54 4,4 C 3,3 C 3,3 C 99 % 981,5 hPa 0,0 l/m 0 min 2 min 0 W/m 12,9 km/h (3 Bft) 97,83 %
13.12.2019 16:56 4,4 C 3,3 C 3,3 C 99 % 981,6 hPa 0,0 l/m 0 min 2 min 0 W/m 9,7 km/h (2 Bft) 97,87 %
13.12.2019 16:58 4,4 C 3,3 C 3,3 C 99 % 981,7 hPa 0,0 l/m 0 min 2 min 0 W/m 16,1 km/h (3 Bft) 97,87 %
13.12.2019 17:00 4,4 C 3,3 C 3,3 C 99 % 981,8 hPa 0,0 l/m 0 min 2 min 0 W/m 25,7 km/h (4 Bft) 97,87 %
13.12.2019 17:02 4,4 C 3,3 C 3,3 C 99 % 981,8 hPa 0,0 l/m 0 min 2 min 0 W/m 9,7 km/h (2 Bft) 97,87 %
13.12.2019 17:04 4,4 C 3,3 C 3,3 C 99 % 982,0 hPa 0,2 l/m 0 min 2 min 0 W/m 12,9 km/h (3 Bft) 97,83 %
13.12.2019 17:06 4,3 C 3,3 C 3,3 C 99 % 982,0 hPa 0,0 l/m 0 min 2 min 0 W/m 9,7 km/h (2 Bft) 97,87 %
13.12.2019 17:08 4,4 C 3,3 C 3,3 C 99 % 982,0 hPa 0,0 l/m 0 min 2 min 0 W/m 6,4 km/h (2 Bft) 97,87 %
13.12.2019 17:10 4,3 C 3,3 C 3,3 C 99 % 982,1 hPa 0,0 l/m 0 min 2 min 0 W/m 16,1 km/h (3 Bft) 97,87 %
13.12.2019 17:12 4,4 C 3,3 C 3,3 C 99 % 982,2 hPa 0,0 l/m 0 min 2 min 0 W/m 12,9 km/h (3 Bft) 95,74 %
13.12.2019 17:14 4,3 C 3,3 C 3,3 C 99 % 982,2 hPa 0,0 l/m 0 min 0 min 0 W/m 9,7 km/h (2 Bft) 97,87 %
13.12.2019 17:16 4,3 C 3,3 C 3,3 C 99 % 982,3 hPa 0,0 l/m 0 min 2 min 0 W/m 9,7 km/h (2 Bft) 97,83 %
13.12.2019 17:18 4,3 C 3,3 C 3,3 C 99 % 982,3 hPa 0,0 l/m 0 min 2 min 0 W/m 9,7 km/h (2 Bft) 97,87 %
13.12.2019 17:20 4,3 C 3,3 C 3,3 C 99 % 982,4 hPa 0,0 l/m 0 min 2 min 0 W/m 9,7 km/h (2 Bft) 97,87 %
13.12.2019 17:22 4,4 C 3,3 C 3,3 C 99 % 982,4 hPa 0,0 l/m 0 min 2 min 0 W/m 6,4 km/h (2 Bft) 100,00 %
13.12.2019 17:24 4,4 C 3,3 C 3,3 C 99 % 982,5 hPa 0,0 l/m 0 min 2 min 0 W/m 16,1 km/h (3 Bft) 100,00 %
13.12.2019 17:26 4,4 C 3,3 C 3,3 C 99 % 982,5 hPa 0,0 l/m 0 min 2 min 0 W/m 6,4 km/h (2 Bft) 100,00 %
13.12.2019 17:28 4,4 C 3,9 C 3,3 C 99 % 982,5 hPa 0,0 l/m 0 min 2 min 0 W/m 3,2 km/h (1 Bft) 97,83 %
13.12.2019 17:30 4,4 C 3,9 C 3,3 C 99 % 982,6 hPa 0,0 l/m 0 min 2 min 0 W/m 9,7 km/h (2 Bft) 100,00 %
13.12.2019 17:32 4,4 C 3,9 C 3,3 C 99 % 982,6 hPa 0,0 l/m 0 min 2 min 0 W/m 9,7 km/h (2 Bft) 97,87 %
13.12.2019 17:34 4,4 C 3,9 C 3,3 C 99 % 982,6 hPa 0,0 l/m 0 min 2 min 0 W/m 9,7 km/h (2 Bft) 95,74 %
13.12.2019 17:36 4,4 C 3,9 C 3,3 C 99 % 982,7 hPa 0,0 l/m 0 min 2 min 0 W/m 9,7 km/h (2 Bft) 100,00 %
13.12.2019 17:38 4,4 C 3,9 C 3,3 C 99 % 982,8 hPa 0,0 l/m 0 min 2 min 0 W/m 12,9 km/h (3 Bft) 100,00 %
13.12.2019 17:40 4,4 C 3,9 C 3,3 C 99 % 982,8 hPa 0,2 l/m 0 min 2 min 0 W/m 16,1 km/h (3 Bft) 100,00 %
13.12.2019 17:42 4,4 C 3,9 C 3,3 C 99 % 982,8 hPa 0,0 l/m 0 min 2 min 0 W/m 19,3 km/h (3 Bft) 97,87 %
13.12.2019 17:44 4,5 C 3,9 C 3,3 C 99 % 982,8 hPa 0,0 l/m 0 min 2 min 0 W/m 9,7 km/h (2 Bft) 100,00 %
13.12.2019 17:46 4,5 C 3,9 C 3,3 C 99 % 982,9 hPa 0,0 l/m 0 min 2 min 0 W/m 3,2 km/h (1 Bft) 100,00 %
13.12.2019 17:48 4,5 C 3,9 C 3,3 C 99 % 982,8 hPa 0,0 l/m 0 min 2 min 0 W/m 9,7 km/h (2 Bft) 100,00 %
13.12.2019 17:50 4,5 C 3,9 C 3,3 C 99 % 982,9 hPa 0,0 l/m 0 min 2 min 0 W/m 6,4 km/h (2 Bft) 100,00 %
13.12.2019 17:52 4,6 C 3,9 C 3,3 C 99 % 982,9 hPa 0,2 l/m 0 min 2 min 0 W/m 3,2 km/h (1 Bft) 100,00 %
13.12.2019 17:54 4,6 C 3,9 C 3,3 C 99 % 983,0 hPa 0,0 l/m 0 min 2 min 0 W/m 6,4 km/h (2 Bft) 97,87 %
13.12.2019 17:56 4,6 C 3,9 C 3,3 C 99 % 983,0 hPa 0,0 l/m 0 min 2 min 0 W/m 3,2 km/h (1 Bft) 91,49 %
13.12.2019 17:58 4,6 C 3,9 C 3,3 C 99 % 983,1 hPa 0,0 l/m 0 min 2 min 0 W/m 6,4 km/h (2 Bft) 97,87 %
13.12.2019 18:00 4,6 C 3,9 C 3,3 C 99 % 983,1 hPa 0,0 l/m 0 min 2 min 0 W/m 3,2 km/h (1 Bft) 97,87 %
13.12.2019 18:02 4,6 C 3,9 C 3,3 C 99 % 983,1 hPa 0,0 l/m 0 min 2 min 0 W/m 3,2 km/h (1 Bft) 97,87 %
13.12.2019 18:04 4,6 C 3,9 C 3,3 C 99 % 983,2 hPa 0,0 l/m 0 min 2 min 0 W/m 3,2 km/h (1 Bft) 97,83 %
13.12.2019 18:06 4,6 C 3,9 C 3,3 C 99 % 983,2 hPa 0,0 l/m 0 min 2 min 0 W/m 6,4 km/h (2 Bft) 97,87 %
13.12.2019 18:08 4,6 C 3,9 C 3,3 C 99 % 983,3 hPa 0,0 l/m 0 min 0 min 0 W/m 6,4 km/h (2 Bft) 97,87 %
13.12.2019 18:10 4,6 C 3,9 C 3,3 C 99 % 983,3 hPa 0,0 l/m 0 min 2 min 0 W/m 12,9 km/h (3 Bft) 95,74 %
13.12.2019 18:12 4,7 C 3,9 C 3,3 C 99 % 983,3 hPa 0,0 l/m 0 min 0 min 0 W/m 12,9 km/h (3 Bft) 97,87 %
13.12.2019 18:14 4,7 C 3,9 C 3,3 C 99 % 983,4 hPa 0,0 l/m 0 min 0 min 0 W/m 9,7 km/h (2 Bft) 95,65 %
13.12.2019 18:16 4,7 C 3,9 C 3,3 C 99 % 983,4 hPa 0,0 l/m 0 min 2 min 0 W/m 6,4 km/h (2 Bft) 97,87 %
13.12.2019 18:18 4,7 C 3,9 C 3,9 C 99 % 983,4 hPa 0,0 l/m 0 min 2 min 0 W/m 9,7 km/h (2 Bft) 95,74 %
13.12.2019 18:20 4,8 C 4,4 C 3,9 C 99 % 983,4 hPa 0,0 l/m 0 min 2 min 0 W/m 6,4 km/h (2 Bft) 97,87 %
13.12.2019 18:22 4,8 C 4,4 C 3,9 C 99 % 983,4 hPa 0,0 l/m 0 min 0 min 0 W/m 6,4 km/h (2 Bft) 97,87 %
13.12.2019 18:24 4,8 C 4,4 C 3,9 C 99 % 983,5 hPa 0,0 l/m 0 min 2 min 0 W/m 3,2 km/h (1 Bft) 97,87 %
13.12.2019 18:26 4,8 C 4,4 C 3,9 C 99 % 983,5 hPa 0,0 l/m 0 min 0 min 0 W/m 6,4 km/h (2 Bft) 97,83 %
13.12.2019 18:28 4,9 C 4,4 C 3,9 C 99 % 983,6 hPa 0,0 l/m 0 min 0 min 0 W/m 3,2 km/h (1 Bft) 95,74 %
13.12.2019 18:30 4,9 C 4,4 C 3,9 C 99 % 983,6 hPa 0,0 l/m 0 min 0 min 0 W/m 12,9 km/h (3 Bft) 93,62 %
13.12.2019 18:32 4,9 C 4,4 C 3,9 C 99 % 983,6 hPa 0,0 l/m 0 min 0 min 0 W/m 9,7 km/h (2 Bft) 93,62 %
13.12.2019 18:34 5,0 C 4,4 C 3,9 C 99 % 983,6 hPa 0,0 l/m 0 min 0 min 0 W/m 12,9 km/h (3 Bft) 97,87 %
13.12.2019 18:36 5,0 C 4,4 C 3,9 C 100 % 983,7 hPa 0,0 l/m 0 min 0 min 0 W/m 6,4 km/h (2 Bft) 93,62 %
13.12.2019 18:38 5,1 C 4,4 C 3,9 C 100 % 983,7 hPa 0,0 l/m 0 min 0 min 0 W/m 9,7 km/h (2 Bft) 95,65 %
13.12.2019 18:40 5,1 C 4,4 C 3,9 C 100 % 983,8 hPa 0,0 l/m 0 min 0 min 0 W/m 9,7 km/h (2 Bft) 95,74 %
13.12.2019 18:42 5,1 C 4,4 C 3,9 C 100 % 983,8 hPa 0,0 l/m 0 min 0 min 0 W/m 6,4 km/h (2 Bft) 97,87 %
13.12.2019 18:44 5,2 C 4,4 C 3,9 C 100 % 983,8 hPa 0,0 l/m 0 min 0 min 0 W/m 6,4 km/h (2 Bft) 97,87 %
13.12.2019 18:46 5,2 C 4,4 C 3,9 C 99 % 983,8 hPa 0,0 l/m 0 min 0 min 0 W/m 6,4 km/h (2 Bft) 95,74 %
13.12.2019 18:48 5,2 C 4,4 C 3,9 C 99 % 983,9 hPa 0,0 l/m 0 min 0 min 0 W/m 6,4 km/h (2 Bft) 97,87 %
13.12.2019 18:50 5,3 C 5,0 C 3,9 C 99 % 984,0 hPa 0,0 l/m 0 min 0 min 0 W/m 6,4 km/h (2 Bft) 97,83 %
13.12.2019 18:52 5,3 C 5,0 C 4,4 C 99 % 984,0 hPa 0,0 l/m 0 min 0 min 0 W/m 6,4 km/h (2 Bft) 93,62 %
13.12.2019 18:54 5,3 C 5,0 C 4,4 C 99 % 984,1 hPa 0,2 l/m 0 min 0 min 0 W/m 16,1 km/h (3 Bft) 97,87 %
13.12.2019 18:56 5,4 C 5,0 C 4,4 C 100 % 984,0 hPa 0,0 l/m 0 min 0 min 0 W/m 9,7 km/h (2 Bft) 97,87 %
13.12.2019 18:58 5,4 C 5,0 C 4,4 C 100 % 984,1 hPa 0,0 l/m 0 min 0 min 0 W/m 12,9 km/h (3 Bft) 95,74 %
13.12.2019 19:00 5,5 C 5,0 C 4,4 C 100 % 984,1 hPa 0,0 l/m 0 min 0 min 0 W/m 6,4 km/h (2 Bft) 97,83 %
13.12.2019 19:02 5,6 C 5,0 C 4,4 C 100 % 984,1 hPa 0,0 l/m 0 min 0 min 0 W/m 6,4 km/h (2 Bft) 97,87 %
13.12.2019 19:04 5,6 C 5,0 C 4,4 C 100 % 984,3 hPa 0,0 l/m 0 min 0 min 0 W/m 16,1 km/h (3 Bft) 97,87 %
13.12.2019 19:06 5,6 C 5,0 C 4,4 C 100 % 984,4 hPa 0,0 l/m 0 min 0 min 0 W/m 16,1 km/h (3 Bft) 93,62 %
13.12.2019 19:08 5,7 C 5,0 C 4,4 C 100 % 984,4 hPa 0,0 l/m 0 min 0 min 0 W/m 12,9 km/h (3 Bft) 97,87 %
13.12.2019 19:10 5,7 C 5,0 C 4,4 C 100 % 984,4 hPa 0,0 l/m 0 min 0 min 0 W/m 12,9 km/h (3 Bft) 97,87 %
13.12.2019 19:12 5,7 C 5,0 C 4,4 C 100 % 984,5 hPa 0,0 l/m 0 min 0 min 0 W/m 16,1 km/h (3 Bft) 97,83 %
13.12.2019 19:14 5,8 C 5,0 C 4,4 C 100 % 984,6 hPa 0,0 l/m 0 min 0 min 0 W/m 16,1 km/h (3 Bft) 97,87 %
13.12.2019 19:16 5,8 C 5,0 C 4,4 C 100 % 984,5 hPa 0,0 l/m 0 min 0 min 0 W/m 9,7 km/h (2 Bft) 97,87 %
13.12.2019 19:18 5,8 C 5,0 C 4,4 C 100 % 984,6 hPa 0,0 l/m 0 min 0 min 0 W/m 19,3 km/h (3 Bft) 97,87 %
13.12.2019 19:20 5,8 C 5,0 C 4,4 C 100 % 984,6 hPa 0,0 l/m 0 min 0 min 0 W/m 16,1 km/h (3 Bft) 97,87 %
13.12.2019 19:22 5,9 C 5,0 C 4,4 C 100 % 984,7 hPa 0,0 l/m 0 min 0 min 0 W/m 16,1 km/h (3 Bft) 97,87 %
13.12.2019 19:24 5,9 C 5,0 C 4,4 C 100 % 984,7 hPa 0,0 l/m 0 min 0 min 0 W/m 9,7 km/h (2 Bft) 97,83 %
13.12.2019 19:26 5,9 C 5,0 C 4,4 C 100 % 984,7 hPa 0,0 l/m 0 min 0 min 0 W/m 12,9 km/h (3 Bft) 97,87 %
13.12.2019 19:28 5,9 C 5,0 C 4,4 C 100 % 984,8 hPa 0,0 l/m 0 min 0 min 0 W/m 19,3 km/h (3 Bft) 100,00 %
13.12.2019 19:30 5,9 C 5,0 C 4,4 C 100 % 984,9 hPa 0,0 l/m 0 min 0 min 0 W/m 16,1 km/h (3 Bft) 100,00 %
13.12.2019 19:32 5,9 C 5,0 C 4,4 C 100 % 984,8 hPa 0,0 l/m 0 min 0 min 0 W/m 12,9 km/h (3 Bft) 100,00 %
13.12.2019 19:34 5,9 C 5,0 C 4,4 C 100 % 984,9 hPa 0,0 l/m 0 min 0 min 0 W/m 9,7 km/h (2 Bft) 100,00 %
13.12.2019 19:36 5,9 C 5,0 C 4,4 C 100 % 985,0 hPa 0,0 l/m 0 min 0 min 0 W/m 9,7 km/h (2 Bft) 100,00 %
13.12.2019 19:38 5,9 C 5,0 C 4,4 C 100 % 985,0 hPa 0,0 l/m 0 min 0 min 0 W/m 12,9 km/h (3 Bft) 97,87 %
13.12.2019 19:40 5,9 C 5,0 C 4,4 C 100 % 985,1 hPa 0,0 l/m 0 min 0 min 0 W/m 6,4 km/h (2 Bft) 100,00 %
13.12.2019 19:42 5,9 C 5,0 C 4,4 C 100 % 985,2 hPa 0,0 l/m 0 min 0 min 0 W/m 12,9 km/h (3 Bft) 97,87 %
13.12.2019 19:44 5,9 C 5,0 C 4,4 C 100 % 985,2 hPa 0,0 l/m 0 min 0 min 0 W/m 9,7 km/h (2 Bft) 97,87 %
13.12.2019 19:46 5,9 C 5,0 C 4,4 C 100 % 985,2 hPa 0,0 l/m 0 min 0 min 0 W/m 6,4 km/h (2 Bft) 97,83 %
13.12.2019 19:48 5,9 C 5,0 C 4,4 C 100 % 985,2 hPa 0,0 l/m 0 min 0 min 0 W/m 12,9 km/h (3 Bft) 97,87 %
13.12.2019 19:50 5,9 C 5,0 C 4,4 C 100 % 985,3 hPa 0,0 l/m 0 min 0 min 0 W/m 16,1 km/h (3 Bft) 97,87 %
13.12.2019 19:52 5,9 C 5,0 C 4,4 C 100 % 985,3 hPa 0,0 l/m 0 min 2 min 0 W/m 19,3 km/h (3 Bft) 95,74 %
13.12.2019 19:54 5,9 C 5,0 C 4,4 C 100 % 985,3 hPa 0,0 l/m 0 min 2 min 0 W/m 12,9 km/h (3 Bft) 97,87 %
13.12.2019 19:56 5,9 C 5,0 C 4,4 C 100 % 985,4 hPa 0,0 l/m 0 min 2 min 0 W/m 12,9 km/h (3 Bft) 95,74 %
13.12.2019 19:58 5,9 C 5,0 C 4,4 C 100 % 985,4 hPa 0,0 l/m 0 min 0 min 0 W/m 19,3 km/h (3 Bft) 97,83 %
13.12.2019 20:00 5,8 C 5,0 C 4,4 C 100 % 985,4 hPa 0,0 l/m 0 min 0 min 0 W/m 16,1 km/h (3 Bft) 95,74 %
13.12.2019 20:02 5,9 C 5,0 C 4,4 C 100 % 985,5 hPa 0,0 l/m 0 min 0 min 0 W/m 16,1 km/h (3 Bft) 97,87 %
13.12.2019 20:04 5,8 C 5,0 C 4,4 C 100 % 985,5 hPa 0,0 l/m 0 min 0 min 0 W/m 12,9 km/h (3 Bft) 97,87 %
13.12.2019 20:06 5,9 C 5,0 C 4,4 C 100 % 985,5 hPa 0,0 l/m 0 min 0 min 0 W/m 12,9 km/h (3 Bft) 95,74 %
13.12.2019 20:08 5,8 C 5,0 C 4,4 C 100 % 985,6 hPa 0,0 l/m 0 min 0 min 0 W/m 9,7 km/h (2 Bft) 97,87 %
13.12.2019 20:10 5,8 C 5,0 C 4,4 C 100 % 985,5 hPa 0,0 l/m 0 min 0 min 0 W/m 16,1 km/h (3 Bft) 97,83 %
13.12.2019 20:12 5,8 C 5,0 C 4,4 C 100 % 985,6 hPa 0,0 l/m 0 min 0 min 0 W/m 12,9 km/h (3 Bft) 97,87 %
13.12.2019 20:14 5,8 C 5,0 C 4,4 C 100 % 985,6 hPa 0,0 l/m 0 min 0 min 0 W/m 22,5 km/h (4 Bft) 97,87 %
13.12.2019 20:16 5,8 C 5,0 C 4,4 C 100 % 985,7 hPa 0,0 l/m 0 min 0 min 0 W/m 12,9 km/h (3 Bft) 97,87 %
13.12.2019 20:18 5,8 C 5,0 C 4,4 C 100 % 985,7 hPa 0,0 l/m 0 min 2 min 0 W/m 16,1 km/h (3 Bft) 97,87 %
13.12.2019 20:20 5,8 C 5,0 C 4,4 C 100 % 985,8 hPa 0,0 l/m 0 min 2 min 0 W/m 19,3 km/h (3 Bft) 97,87 %
13.12.2019 20:22 5,8 C 5,0 C 4,4 C 99 % 985,8 hPa 0,0 l/m 0 min 0 min 0 W/m 16,1 km/h (3 Bft) 97,83 %
13.12.2019 20:24 5,8 C 5,0 C 4,4 C 99 % 985,8 hPa 0,0 l/m 0 min 0 min 0 W/m 16,1 km/h (3 Bft) 97,87 %
13.12.2019 20:26 5,8 C 5,0 C 4,4 C 99 % 985,8 hPa 0,0 l/m 0 min 0 min 0 W/m 19,3 km/h (3 Bft) 97,87 %
13.12.2019 20:28 5,8 C 5,0 C 4,4 C 99 % 985,9 hPa 0,0 l/m 0 min 0 min 0 W/m 16,1 km/h (3 Bft) 95,74 %
13.12.2019 20:30 5,8 C 5,0 C 4,4 C 99 % 985,8 hPa 0,0 l/m 0 min 0 min 0 W/m 12,9 km/h (3 Bft) 91,49 %
13.12.2019 20:32 5,8 C 5,0 C 4,4 C 99 % 985,9 hPa 0,0 l/m 0 min 2 min 0 W/m 12,9 km/h (3 Bft) 91,49 %
13.12.2019 20:34 5,8 C 5,0 C 4,4 C 99 % 985,9 hPa 0,0 l/m 0 min 0 min 0 W/m 22,5 km/h (4 Bft) 93,48 %
13.12.2019 20:36 5,8 C 5,0 C 4,4 C 99 % 986,0 hPa 0,0 l/m 0 min 0 min 0 W/m 19,3 km/h (3 Bft) 95,74 %
13.12.2019 20:38 5,8 C 5,0 C 4,4 C 99 % 986,0 hPa 0,0 l/m 0 min 0 min 0 W/m 29,0 km/h (5 Bft) 95,74 %
13.12.2019 20:40 5,8 C 5,0 C 4,4 C 99 % 986,0 hPa 0,0 l/m 0 min 0 min 0 W/m 12,9 km/h (3 Bft) 97,87 %
13.12.2019 20:42 5,8 C 5,0 C 4,4 C 99 % 986,0 hPa 0,0 l/m 0 min 0 min 0 W/m 16,1 km/h (3 Bft) 97,87 %
13.12.2019 20:44 5,8 C 5,0 C 4,4 C 99 % 986,1 hPa 0,0 l/m 0 min 0 min 0 W/m 22,5 km/h (4 Bft) 97,87 %
13.12.2019 20:46 5,8 C 5,0 C 4,4 C 99 % 986,1 hPa 0,0 l/m 0 min 0 min 0 W/m 16,1 km/h (3 Bft) 97,83 %
13.12.2019 20:48 5,8 C 5,0 C 4,4 C 99 % 986,0 hPa 0,0 l/m 0 min 0 min 0 W/m 16,1 km/h (3 Bft) 97,87 %
13.12.2019 20:50 5,8 C 5,0 C 4,4 C 99 % 986,1 hPa 0,0 l/m 0 min 0 min 0 W/m 12,9 km/h (3 Bft) 95,74 %
13.12.2019 20:52 5,8 C 5,0 C 4,4 C 99 % 986,1 hPa 0,0 l/m 0 min 0 min 0 W/m 29,0 km/h (5 Bft) 97,87 %
13.12.2019 20:54 5,8 C 5,0 C 4,4 C 99 % 986,1 hPa 0,0 l/m 0 min 0 min 0 W/m 12,9 km/h (3 Bft) 97,87 %
13.12.2019 20:56 5,8 C 5,0 C 4,4 C 99 % 986,1 hPa 0,0 l/m 0 min 0 min 0 W/m 25,7 km/h (4 Bft) 95,65 %
13.12.2019 20:58 5,8 C 5,0 C 4,4 C 99 % 986,1 hPa 0,0 l/m 0 min 0 min 0 W/m 22,5 km/h (4 Bft) 97,87 %
13.12.2019 21:00 5,8 C 5,0 C 4,4 C 99 % 986,2 hPa 0,0 l/m 0 min 0 min 0 W/m 19,3 km/h (3 Bft) 97,87 %
13.12.2019 21:02 5,8 C 5,0 C 4,4 C 99 % 986,2 hPa 0,0 l/m 0 min 0 min 0 W/m 12,9 km/h (3 Bft) 97,87 %
13.12.2019 21:04 5,8 C 5,0 C 4,4 C 99 % 986,2 hPa 0,0 l/m 0 min 0 min 0 W/m 12,9 km/h (3 Bft) 97,87 %
13.12.2019 21:06 5,8 C 5,0 C 4,4 C 99 % 986,2 hPa 0,0 l/m 0 min 0 min 0 W/m 6,4 km/h (2 Bft) 97,87 %
13.12.2019 21:08 5,7 C 5,0 C 4,4 C 99 % 986,2 hPa 0,0 l/m 0 min 2 min 0 W/m 12,9 km/h (3 Bft) 95,65 %
13.12.2019 21:10 5,7 C 4,4 C 4,4 C 99 % 986,3 hPa 0,0 l/m 0 min 2 min 0 W/m 19,3 km/h (3 Bft) 97,87 %
13.12.2019 21:12 5,7 C 4,4 C 3,9 C 99 % 986,2 hPa 0,0 l/m 0 min 2 min 0 W/m 6,4 km/h (2 Bft) 97,87 %
13.12.2019 21:14 5,7 C 4,4 C 3,9 C 99 % 986,2 hPa 0,0 l/m 0 min 2 min 0 W/m 12,9 km/h (3 Bft) 97,87 %
13.12.2019 21:16 5,7 C 4,4 C 3,9 C 99 % 986,2 hPa 0,0 l/m 0 min 2 min 0 W/m 16,1 km/h (3 Bft) 97,87 %
13.12.2019 21:18 5,7 C 4,4 C 3,9 C 99 % 986,2 hPa 0,0 l/m 0 min 2 min 0 W/m 12,9 km/h (3 Bft) 97,87 %
13.12.2019 21:20 5,7 C 4,4 C 3,9 C 99 % 986,2 hPa 0,0 l/m 0 min 2 min 0 W/m 9,7 km/h (2 Bft) 100,00 %
13.12.2019 21:22 5,7 C 4,4 C 3,9 C 99 % 986,2 hPa 0,0 l/m 0 min 2 min 0 W/m 16,1 km/h (3 Bft) 93,62 %
13.12.2019 21:24 5,7 C 4,4 C 3,9 C 99 % 986,2 hPa 0,0 l/m 0 min 2 min 0 W/m 22,5 km/h (4 Bft) 95,74 %
13.12.2019 21:26 5,7 C 4,4 C 3,9 C 99 % 986,2 hPa 0,0 l/m 0 min 0 min 0 W/m 22,5 km/h (4 Bft) 97,87 %
13.12.2019 21:28 5,7 C 4,4 C 3,9 C 99 % 986,1 hPa 0,0 l/m 0 min 2 min 0 W/m 22,5 km/h (4 Bft) 97,87 %
13.12.2019 21:30 5,7 C 4,4 C 3,9 C 98 % 986,1 hPa 0,0 l/m 0 min 0 min 0 W/m 12,9 km/h (3 Bft) 97,87 %
13.12.2019 21:32 5,7 C 4,4 C 3,9 C 98 % 986,1 hPa 0,0 l/m 0 min 0 min 0 W/m 16,1 km/h (3 Bft) 97,83 %
13.12.2019 21:34 5,7 C 4,4 C 3,9 C 98 % 986,0 hPa 0,0 l/m 0 min 0 min 0 W/m 12,9 km/h (3 Bft) 95,74 %
13.12.2019 21:36 5,7 C 4,4 C 3,9 C 98 % 986,1 hPa 0,0 l/m 0 min 0 min 0 W/m 22,5 km/h (4 Bft) 97,87 %
13.12.2019 21:38 5,7 C 4,4 C 3,9 C 98 % 986,2 hPa 0,0 l/m 0 min 0 min 0 W/m 16,1 km/h (3 Bft) 97,87 %
13.12.2019 21:40 5,7 C 4,4 C 3,9 C 98 % 986,2 hPa 0,0 l/m 0 min 0 min 0 W/m 9,7 km/h (2 Bft) 97,87 %
13.12.2019 21:42 5,6 C 4,4 C 3,9 C 98 % 986,1 hPa 0,0 l/m 0 min 0 min 0 W/m 16,1 km/h (3 Bft) 95,74 %
13.12.2019 21:44 5,6 C 4,4 C 3,9 C 98 % 986,1 hPa 0,0 l/m 0 min 0 min 0 W/m 12,9 km/h (3 Bft) 97,83 %
13.12.2019 21:46 5,6 C 4,4 C 3,9 C 98 % 986,2 hPa 0,0 l/m 0 min 0 min 0 W/m 9,7 km/h (2 Bft) 97,87 %
13.12.2019 21:48 5,6 C 4,4 C 3,9 C 98 % 986,1 hPa 0,0 l/m 0 min 0 min 0 W/m 6,4 km/h (2 Bft) 97,87 %
13.12.2019 21:50 5,6 C 4,4 C 3,9 C 98 % 986,1 hPa 0,0 l/m 0 min 0 min 0 W/m 6,4 km/h (2 Bft) 97,87 %
13.12.2019 21:52 5,6 C 4,4 C 3,9 C 98 % 986,0 hPa 0,0 l/m 0 min 0 min 0 W/m 9,7 km/h (2 Bft) 95,74 %
13.12.2019 21:54 5,6 C 4,4 C 3,9 C 98 % 986,0 hPa 0,0 l/m 0 min 0 min 0 W/m 16,1 km/h (3 Bft) 97,83 %
13.12.2019 21:56 5,6 C 4,4 C 3,9 C 98 % 986,0 hPa 0,0 l/m 0 min 0 min 0 W/m 16,1 km/h (3 Bft) 97,87 %
13.12.2019 21:58 5,6 C 4,4 C 3,9 C 98 % 986,0 hPa 0,0 l/m 0 min 0 min 0 W/m 9,7 km/h (2 Bft) 97,87 %
13.12.2019 22:00 5,6 C 4,4 C 3,9 C 98 % 986,1 hPa 0,0 l/m 0 min 0 min 0 W/m 6,4 km/h (2 Bft) 97,87 %
13.12.2019 22:02 5,6 C 4,4 C 3,9 C 98 % 986,0 hPa 0,0 l/m 0 min 0 min 0 W/m 6,4 km/h (2 Bft) 97,87 %
13.12.2019 22:04 5,5 C 4,4 C 3,9 C 98 % 986,0 hPa 0,0 l/m 0 min 0 min 0 W/m 12,9 km/h (3 Bft) 97,87 %
13.12.2019 22:06 5,5 C 4,4 C 3,9 C 98 % 986,0 hPa 0,0 l/m 0 min 0 min 0 W/m 16,1 km/h (3 Bft) 97,83 %
13.12.2019 22:08 5,5 C 4,4 C 3,9 C 98 % 986,0 hPa 0,0 l/m 0 min 0 min 0 W/m 16,1 km/h (3 Bft) 97,87 %
13.12.2019 22:10 5,5 C 4,4 C 3,9 C 98 % 986,0 hPa 0,0 l/m 0 min 0 min 0 W/m 6,4 km/h (2 Bft) 97,87 %
13.12.2019 22:12 5,4 C 4,4 C 3,9 C 98 % 986,0 hPa 0,0 l/m 0 min 0 min 0 W/m 6,4 km/h (2 Bft) 97,87 %
13.12.2019 22:14 5,4 C 4,4 C 3,9 C 98 % 986,1 hPa 0,0 l/m 0 min 0 min 0 W/m 6,4 km/h (2 Bft) 97,87 %
13.12.2019 22:16 5,4 C 4,4 C 3,9 C 98 % 986,1 hPa 0,0 l/m 0 min 0 min 0 W/m 12,9 km/h (3 Bft) 100,00 %
13.12.2019 22:18 5,4 C 4,4 C 3,9 C 97 % 986,1 hPa 0,0 l/m 0 min 0 min 0 W/m 9,7 km/h (2 Bft) 100,00 %
13.12.2019 22:20 5,4 C 4,4 C 3,9 C 97 % 986,2 hPa 0,0 l/m 0 min 0 min 0 W/m 16,1 km/h (3 Bft) 97,87 %
13.12.2019 22:22 5,4 C 5,0 C 3,9 C 97 % 986,2 hPa 0,0 l/m 0 min 0 min 0 W/m 16,1 km/h (3 Bft) 97,87 %
13.12.2019 22:24 5,4 C 5,0 C 3,9 C 97 % 986,1 hPa 0,0 l/m 0 min 0 min 0 W/m 12,9 km/h (3 Bft) 100,00 %
13.12.2019 22:26 5,4 C 5,0 C 3,9 C 97 % 986,2 hPa 0,0 l/m 0 min 0 min 0 W/m 12,9 km/h (3 Bft) 97,87 %
13.12.2019 22:28 5,4 C 5,0 C 3,9 C 97 % 986,1 hPa 0,0 l/m 0 min 0 min 0 W/m 6,4 km/h (2 Bft) 100,00 %
13.12.2019 22:30 5,4 C 5,0 C 3,9 C 97 % 986,3 hPa 0,0 l/m 0 min 0 min 0 W/m 12,9 km/h (3 Bft) 100,00 %
13.12.2019 22:32 5,4 C 5,0 C 3,9 C 97 % 986,2 hPa 0,0 l/m 0 min 0 min 0 W/m 12,9 km/h (3 Bft) 100,00 %
13.12.2019 22:34 5,4 C 5,0 C 3,9 C 97 % 986,2 hPa 0,0 l/m 0 min 0 min 0 W/m 19,3 km/h (3 Bft) 100,00 %
13.12.2019 22:36 5,4 C 5,0 C 3,9 C 97 % 986,2 hPa 0,0 l/m 0 min 0 min 0 W/m 12,9 km/h (3 Bft) 100,00 %
13.12.2019 22:38 5,4 C 5,0 C 3,9 C 97 % 986,2 hPa 0,0 l/m 0 min 0 min 0 W/m 16,1 km/h (3 Bft) 97,87 %
13.12.2019 22:40 5,4 C 5,0 C 3,9 C 97 % 986,2 hPa 0,0 l/m 0 min 0 min 0 W/m 19,3 km/h (3 Bft) 100,00 %
13.12.2019 22:42 5,4 C 5,0 C 3,9 C 97 % 986,3 hPa 0,0 l/m 0 min 0 min 0 W/m 16,1 km/h (3 Bft) 100,00 %
13.12.2019 22:44 5,4 C 5,0 C 3,9 C 97 % 986,3 hPa 0,0 l/m 0 min 0 min 0 W/m 25,7 km/h (4 Bft) 100,00 %
13.12.2019 22:46 5,4 C 5,0 C 3,9 C 97 % 986,3 hPa 0,0 l/m 0 min 0 min 0 W/m 29,0 km/h (5 Bft) 100,00 %
13.12.2019 22:48 5,4 C 5,0 C 3,9 C 97 % 986,3 hPa 0,0 l/m 0 min 0 min 0 W/m 19,3 km/h (3 Bft) 100,00 %
13.12.2019 22:50 5,4 C 5,0 C 3,9 C 97 % 986,3 hPa 0,0 l/m 0 min 0 min 0 W/m 22,5 km/h (4 Bft) 100,00 %
13.12.2019 22:52 5,4 C 5,0 C 3,9 C 97 % 986,3 hPa 0,0 l/m 0 min 0 min 0 W/m 22,5 km/h (4 Bft) 100,00 %
13.12.2019 22:54 5,4 C 5,0 C 3,9 C 96 % 986,2 hPa 0,0 l/m 0 min 0 min 0 W/m 6,4 km/h (2 Bft) 100,00 %
13.12.2019 22:56 5,4 C 5,0 C 3,9 C 96 % 986,2 hPa 0,0 l/m 0 min 0 min 0 W/m 12,9 km/h (3 Bft) 95,74 %
13.12.2019 22:58 5,4 C 5,0 C 3,9 C 96 % 986,3 hPa 0,0 l/m 0 min 0 min 0 W/m 19,3 km/h (3 Bft) 100,00 %
13.12.2019 23:00 5,4 C 5,0 C 3,9 C 96 % 986,1 hPa 0,0 l/m 0 min 0 min 0 W/m 16,1 km/h (3 Bft) 100,00 %
13.12.2019 23:02 5,4 C 5,0 C 3,9 C 96 % 986,3 hPa 0,0 l/m 0 min 0 min 0 W/m 16,1 km/h (3 Bft) 100,00 %
13.12.2019 23:04 5,4 C 5,0 C 3,9 C 96 % 986,1 hPa 0,0 l/m 0 min 0 min 0 W/m 22,5 km/h (4 Bft) 100,00 %
13.12.2019 23:06 5,4 C 5,0 C 3,9 C 96 % 986,1 hPa 0,0 l/m 0 min 0 min 0 W/m 19,3 km/h (3 Bft) 97,87 %
13.12.2019 23:08 5,4 C 5,0 C 3,9 C 96 % 986,1 hPa 0,0 l/m 0 min 0 min 0 W/m 19,3 km/h (3 Bft) 93,62 %
13.12.2019 23:10 5,4 C 5,0 C 3,9 C 96 % 986,0 hPa 0,0 l/m 0 min 0 min 0 W/m 22,5 km/h (4 Bft) 95,74 %
13.12.2019 23:12 5,4 C 5,0 C 3,9 C 96 % 986,2 hPa 0,0 l/m 0 min 0 min 0 W/m 22,5 km/h (4 Bft) 95,74 %
13.12.2019 23:14 5,4 C 5,0 C 3,9 C 95 % 986,1 hPa 0,0 l/m 0 min 0 min 0 W/m 35,4 km/h (5 Bft) 95,74 %
13.12.2019 23:16 5,4 C 5,0 C 3,9 C 95 % 986,1 hPa 0,0 l/m 0 min 0 min 0 W/m 19,3 km/h (3 Bft) 95,65 %
13.12.2019 23:18 5,4 C 5,0 C 3,9 C 95 % 986,1 hPa 0,0 l/m 0 min 0 min 0 W/m 16,1 km/h (3 Bft) 95,74 %
13.12.2019 23:20 5,4 C 5,0 C 3,9 C 95 % 986,1 hPa 0,0 l/m 0 min 0 min 0 W/m 19,3 km/h (3 Bft) 93,62 %
13.12.2019 23:22 5,4 C 5,0 C 3,9 C 95 % 986,1 hPa 0,0 l/m 0 min 0 min 0 W/m 22,5 km/h (4 Bft) 95,74 %
13.12.2019 23:24 5,4 C 5,0 C 3,9 C 95 % 986,0 hPa 0,0 l/m 0 min 0 min 0 W/m 25,7 km/h (4 Bft) 95,74 %
13.12.2019 23:26 5,5 C 5,0 C 3,9 C 95 % 986,0 hPa 0,0 l/m 0 min 0 min 0 W/m 19,3 km/h (3 Bft) 93,62 %
13.12.2019 23:28 5,5 C 5,0 C 3,9 C 94 % 986,0 hPa 0,0 l/m 0 min 0 min 0 W/m 22,5 km/h (4 Bft) 95,65 %
13.12.2019 23:30 5,5 C 5,0 C 3,9 C 94 % 985,9 hPa 0,0 l/m 0 min 0 min 0 W/m 35,4 km/h (5 Bft) 91,49 %
13.12.2019 23:32 5,6 C 5,0 C 3,9 C 94 % 985,9 hPa 0,0 l/m 0 min 0 min 0 W/m 22,5 km/h (4 Bft) 93,62 %
13.12.2019 23:34 5,6 C 5,0 C 3,9 C 94 % 985,9 hPa 0,0 l/m 0 min 0 min 0 W/m 19,3 km/h (3 Bft) 95,74 %
13.12.2019 23:36 5,6 C 5,0 C 3,9 C 94 % 986,0 hPa 0,0 l/m 0 min 0 min 0 W/m 16,1 km/h (3 Bft) 95,74 %
13.12.2019 23:38 5,6 C 5,0 C 3,9 C 94 % 986,0 hPa 0,0 l/m 0 min 0 min 0 W/m 19,3 km/h (3 Bft) 95,65 %
13.12.2019 23:40 5,6 C 5,0 C 3,9 C 94 % 986,1 hPa 0,0 l/m 0 min 0 min 0 W/m 19,3 km/h (3 Bft) 95,74 %
13.12.2019 23:42 5,6 C 5,0 C 3,9 C 94 % 985,9 hPa 0,0 l/m 0 min 0 min 0 W/m 22,5 km/h (4 Bft) 95,74 %
13.12.2019 23:44 5,6 C 5,0 C 3,9 C 94 % 985,9 hPa 0,0 l/m 0 min 0 min 0 W/m 16,1 km/h (3 Bft) 93,62 %
13.12.2019 23:46 5,6 C 5,0 C 3,9 C 94 % 985,9 hPa 0,0 l/m 0 min 0 min 0 W/m 32,2 km/h (5 Bft) 95,74 %
13.12.2019 23:48 5,6 C 5,0 C 3,9 C 94 % 985,8 hPa 0,0 l/m 0 min 0 min 0 W/m 19,3 km/h (3 Bft) 93,62 %
13.12.2019 23:50 5,6 C 5,0 C 3,9 C 94 % 985,7 hPa 0,0 l/m 0 min 0 min 0 W/m 19,3 km/h (3 Bft) 95,65 %
13.12.2019 23:52 5,6 C 5,0 C 3,9 C 94 % 985,6 hPa 0,0 l/m 0 min 0 min 0 W/m 19,3 km/h (3 Bft) 95,74 %
13.12.2019 23:54 5,6 C 5,0 C 3,9 C 94 % 985,6 hPa 0,0 l/m 0 min 0 min 0 W/m 22,5 km/h (4 Bft) 97,87 %
13.12.2019 23:56 5,6 C 5,0 C 3,9 C 93 % 985,4 hPa 0,0 l/m 0 min 0 min 0 W/m 16,1 km/h (3 Bft) 97,87 %
13.12.2019 23:58 5,6 C 5,0 C 3,9 C 93 % 985,4 hPa 0,0 l/m 0 min 0 min 0 W/m 19,3 km/h (3 Bft) 97,87 %
_ Min-Zeit 04:50 03:26 04:22 00:00 08:40 - - - - 13:52 05:02
Minimum _ 2,6 C 1,1 C 0,6 C 85 % 973,9 hPa - - - - 0,0 km/h (0 Bft) 53,49 %
_ Max-Zeit 19:22 14:02 14:02 18:36 21:10 00:54 00:00 04:05 13:12 02:02 00:00
Maximum _ 5,9 C 5,0 C 4,4 C 100 % 986,3 hPa 0,2 l/m 0 min 5 min 54 W/m 57,9 km/h
O-SO (7 Bft)
100,00 %
Durchschnitt _ 4,2 C 3,2 C 2,6 C 95 % 979,6 hPa #7,0 l/m #0 min. #15:42 h 27 W/m 21,7 km/h (4 Bft) 97,09 %
© 2019 W. Hausmann